Time,TemperatureF,DewpointF,PressureIn,WindDirection,WindDirectionDegrees,WindSpeedMPH,WindSpeedGustMPH,Humidity,HourlyPrecipIn,Conditions,Clouds,dailyrainin,SoftwareType,DateUTC
2013-04-26 00:01:00,48.2,40.2,29.56,North,0,0.0,0.0,74,0.00,,,0.00,WUHU216HW,2013-04-26 07:01:00,
2013-04-26 00:02:00,48.2,40.2,29.57,North,0,0.0,0.0,74,0.00,,,0.00,WUHU216HW,2013-04-26 07:02:00,
2013-04-26 00:03:00,48.2,40.2,29.57,North,0,0.0,0.0,74,0.00,,,0.00,WUHU216HW,2013-04-26 07:03:00,
2013-04-26 00:06:00,48.2,40.2,29.57,North,0,0.0,0.0,74,0.00,,,0.00,WUHU216HW,2013-04-26 07:06:00,
2013-04-26 00:07:00,48.2,40.2,29.57,North,0,0.0,0.0,74,0.00,,,0.00,WUHU216HW,2013-04-26 07:07:00,
2013-04-26 00:08:00,48.1,40.1,29.57,North,0,0.0,0.0,74,0.00,,,0.00,WUHU216HW,2013-04-26 07:08:00,
2013-04-26 00:11:00,48.1,40.4,29.57,North,0,0.0,0.0,75,0.00,,,0.00,WUHU216HW,2013-04-26 07:11:00,
2013-04-26 00:12:00,48.1,40.4,29.57,North,0,0.0,0.0,75,0.00,,,0.00,WUHU216HW,2013-04-26 07:12:00,
2013-04-26 00:14:00,47.9,40.2,29.58,North,0,0.0,0.0,75,0.00,,,0.00,WUHU216HW,2013-04-26 07:14:00,
2013-04-26 00:16:00,47.9,40.2,29.58,North,0,0.0,0.0,75,0.00,,,0.00,WUHU216HW,2013-04-26 07:16:00,
2013-04-26 00:17:00,47.9,40.2,29.58,North,0,0.0,0.0,75,0.00,,,0.00,WUHU216HW,2013-04-26 07:17:00,
2013-04-26 00:18:00,47.7,40.2,29.58,North,0,0.0,0.0,75,0.00,,,0.00,WUHU216HW,2013-04-26 07:18:00,
2013-04-26 00:19:00,47.7,40.2,29.58,North,0,0.0,0.0,75,0.00,,,0.00,WUHU216HW,2013-04-26 07:19:00,
2013-04-26 00:22:00,47.5,40.0,29.58,North,0,0.0,0.0,75,0.00,,,0.00,WUHU216HW,2013-04-26 07:22:00,
2013-04-26 00:23:00,47.5,40.0,29.58,North,0,0.0,0.0,75,0.00,,,0.00,WUHU216HW,2013-04-26 07:23:00,
2013-04-26 00:24:00,47.5,40.0,29.58,North,0,0.0,0.0,75,0.00,,,0.00,WUHU216HW,2013-04-26 07:24:00,
2013-04-26 00:27:00,47.3,39.8,29.58,North,0,0.0,0.0,75,0.00,,,0.00,WUHU216HW,2013-04-26 07:27:00,
2013-04-26 00:28:00,47.2,39.6,29.58,North,0,0.0,0.0,75,0.00,,,0.00,WUHU216HW,2013-04-26 07:28:00,
2013-04-26 00:29:00,47.2,39.6,29.58,North,0,0.0,0.0,75,0.00,,,0.00,WUHU216HW,2013-04-26 07:29:00,
2013-04-26 00:32:00,47.2,40.0,29.58,North,0,0.0,0.0,76,0.00,,,0.00,WUHU216HW,2013-04-26 07:32:00,
2013-04-26 00:33:00,47.2,40.3,29.58,North,0,0.0,0.0,77,0.00,,,0.00,WUHU216HW,2013-04-26 07:33:00,
2013-04-26 00:34:00,47.2,40.3,29.58,North,0,0.0,0.0,77,0.00,,,0.00,WUHU216HW,2013-04-26 07:34:00,
2013-04-26 00:38:00,47.0,40.1,29.58,North,0,0.0,0.0,77,0.00,,,0.00,WUHU216HW,2013-04-26 07:38:00,
2013-04-26 00:39:00,46.8,40.0,29.58,North,0,0.0,0.0,77,0.00,,,0.00,WUHU216HW,2013-04-26 07:39:00,
2013-04-26 00:43:00,46.8,40.0,29.58,North,0,0.0,0.0,77,0.00,,,0.00,WUHU216HW,2013-04-26 07:43:00,
2013-04-26 00:44:00,46.6,39.8,29.58,North,0,0.0,0.0,77,0.00,,,0.00,WUHU216HW,2013-04-26 07:44:00,
2013-04-26 00:45:00,46.6,39.8,29.58,North,0,0.0,0.0,77,0.00,,,0.00,WUHU216HW,2013-04-26 07:45:00,
2013-04-26 00:48:00,46.4,40.0,29.58,North,0,0.0,0.0,78,0.00,,,0.00,WUHU216HW,2013-04-26 07:48:00,
2013-04-26 00:49:00,46.4,40.0,29.58,North,0,0.0,0.0,78,0.00,,,0.00,WUHU216HW,2013-04-26 07:49:00,
2013-04-26 00:50:00,46.4,40.0,29.58,North,0,0.0,0.0,78,0.00,,,0.00,WUHU216HW,2013-04-26 07:50:00,
2013-04-26 00:53:00,46.4,39.7,29.59,North,0,0.0,0.0,77,0.00,,,0.00,WUHU216HW,2013-04-26 07:53:00,
2013-04-26 00:54:00,46.3,39.5,29.59,North,0,0.0,0.0,77,0.00,,,0.00,WUHU216HW,2013-04-26 07:54:00,
2013-04-26 00:55:00,46.3,39.5,29.59,North,0,0.0,0.0,77,0.00,,,0.00,WUHU216HW,2013-04-26 07:55:00,
2013-04-26 00:58:00,46.1,39.3,29.59,North,0,0.0,0.0,77,0.00,,,0.00,WUHU216HW,2013-04-26 07:58:00,
2013-04-26 00:59:00,46.1,39.3,29.59,North,0,0.0,0.0,77,0.00,,,0.00,WUHU216HW,2013-04-26 07:59:00,
2013-04-26 01:00:00,46.1,39.6,29.59,North,0,0.0,0.0,78,0.00,,,0.00,WUHU216HW,2013-04-26 08:00:00,
2013-04-26 01:03:00,46.1,39.6,29.59,North,0,0.0,0.0,78,0.00,,,0.00,WUHU216HW,2013-04-26 08:03:00,
2013-04-26 01:04:00,46.1,40.0,29.59,North,0,0.0,0.0,79,0.00,,,0.00,WUHU216HW,2013-04-26 08:04:00,
2013-04-26 01:05:00,46.1,40.0,29.59,North,0,0.0,0.0,79,0.00,,,0.00,WUHU216HW,2013-04-26 08:05:00,
2013-04-26 01:08:00,45.9,39.8,29.59,North,0,0.0,0.0,79,0.00,,,0.00,WUHU216HW,2013-04-26 08:08:00,
2013-04-26 01:09:00,45.9,39.8,29.59,North,0,0.0,0.0,79,0.00,,,0.00,WUHU216HW,2013-04-26 08:09:00,
2013-04-26 01:10:00,45.9,39.8,29.59,North,0,0.0,0.0,79,0.00,,,0.00,WUHU216HW,2013-04-26 08:10:00,
2013-04-26 01:11:00,45.9,39.8,29.59,North,0,0.0,0.0,79,0.00,,,0.00,WUHU216HW,2013-04-26 08:11:00,
2013-04-26 01:13:00,45.9,39.8,29.59,North,0,0.0,0.0,79,0.00,,,0.00,WUHU216HW,2013-04-26 08:13:00,
2013-04-26 01:14:00,45.9,39.8,29.59,North,0,0.0,0.0,79,0.00,,,0.00,WUHU216HW,2013-04-26 08:14:00,
2013-04-26 01:15:00,45.9,39.8,29.59,North,0,0.0,0.0,79,0.00,,,0.00,WUHU216HW,2013-04-26 08:15:00,
2013-04-26 01:16:00,45.9,39.8,29.59,North,0,0.0,0.0,79,0.00,,,0.00,WUHU216HW,2013-04-26 08:16:00,
2013-04-26 01:18:00,45.9,39.8,29.59,North,0,0.0,0.0,79,0.00,,,0.00,WUHU216HW,2013-04-26 08:18:00,
2013-04-26 01:19:00,45.9,39.8,29.59,North,0,0.0,0.0,79,0.00,,,0.00,WUHU216HW,2013-04-26 08:19:00,
2013-04-26 01:20:00,45.9,40.1,29.59,North,0,0.0,0.0,80,0.00,,,0.00,WUHU216HW,2013-04-26 08:20:00,
2013-04-26 01:21:00,45.9,39.8,29.59,North,0,0.0,0.0,79,0.00,,,0.00,WUHU216HW,2013-04-26 08:21:00,
2013-04-26 01:23:00,45.9,39.8,29.59,North,0,0.0,0.0,79,0.00,,,0.00,WUHU216HW,2013-04-26 08:23:00,
2013-04-26 01:24:00,45.9,39.8,29.59,North,0,0.0,0.0,79,0.00,,,0.00,WUHU216HW,2013-04-26 08:24:00,
2013-04-26 01:25:00,45.9,39.8,29.59,North,0,0.0,0.0,79,0.00,,,0.00,WUHU216HW,2013-04-26 08:25:00,
2013-04-26 01:26:00,45.9,39.8,29.59,North,0,0.0,0.0,79,0.00,,,0.00,WUHU216HW,2013-04-26 08:26:00,
2013-04-26 01:28:00,45.7,39.6,29.60,North,0,0.0,0.0,79,0.00,,,0.00,WUHU216HW,2013-04-26 08:28:00,
2013-04-26 01:29:00,45.7,39.6,29.59,North,0,0.0,0.0,79,0.00,,,0.00,WUHU216HW,2013-04-26 08:29:00,
2013-04-26 01:30:00,45.7,39.6,29.60,North,0,0.0,0.0,79,0.00,,,0.00,WUHU216HW,2013-04-26 08:30:00,
2013-04-26 01:31:00,45.7,39.6,29.60,North,0,0.0,0.0,79,0.00,,,0.00,WUHU216HW,2013-04-26 08:31:00,
2013-04-26 01:32:00,45.7,39.6,29.60,North,0,0.0,0.0,79,0.00,,,0.00,WUHU216HW,2013-04-26 08:32:00,
2013-04-26 01:34:00,45.7,39.6,29.60,North,0,0.0,0.0,79,0.00,,,0.00,WUHU216HW,2013-04-26 08:34:00,
2013-04-26 01:35:00,45.7,39.6,29.60,North,0,0.0,0.0,79,0.00,,,0.00,WUHU216HW,2013-04-26 08:35:00,
2013-04-26 01:36:00,45.7,39.6,29.60,North,0,0.0,0.0,79,0.00,,,0.00,WUHU216HW,2013-04-26 08:36:00,
2013-04-26 01:37:00,45.7,39.6,29.60,North,0,0.0,0.0,79,0.00,,,0.00,WUHU216HW,2013-04-26 08:37:00,
2013-04-26 02:00:00,45.0,39.5,29.60,North,0,0.0,0.0,81,0.00,,,0.00,WUHU216HW,2013-04-26 09:00:00,
2013-04-26 02:01:00,45.0,39.5,29.60,North,0,0.0,0.0,81,0.00,,,0.00,WUHU216HW,2013-04-26 09:01:00,
2013-04-26 02:06:00,44.8,39.3,29.60,North,0,0.0,0.0,81,0.00,,,0.00,WUHU216HW,2013-04-26 09:06:00,
2013-04-26 02:07:00,44.8,39.3,29.60,North,0,0.0,0.0,81,0.00,,,0.00,WUHU216HW,2013-04-26 09:07:00,
2013-04-26 02:11:00,45.0,40.1,29.60,North,0,0.0,0.0,83,0.00,,,0.00,WUHU216HW,2013-04-26 09:11:00,
2013-04-26 02:12:00,45.0,40.1,29.60,North,0,0.0,0.0,83,0.00,,,0.00,WUHU216HW,2013-04-26 09:12:00,
2013-04-26 02:16:00,45.0,40.5,29.60,North,0,0.0,0.0,84,0.00,,,0.00,WUHU216HW,2013-04-26 09:16:00,
2013-04-26 02:17:00,45.0,40.1,29.60,North,0,0.0,0.0,83,0.00,,,0.00,WUHU216HW,2013-04-26 09:17:00,
2013-04-26 02:18:00,45.2,40.3,29.60,North,0,0.0,0.0,83,0.00,,,0.00,WUHU216HW,2013-04-26 09:18:00,
2013-04-26 02:21:00,45.0,40.5,29.60,North,0,0.0,0.0,84,0.00,,,0.00,WUHU216HW,2013-04-26 09:21:00,
2013-04-26 02:22:00,45.2,40.7,29.60,North,0,0.0,0.0,84,0.00,,,0.00,WUHU216HW,2013-04-26 09:22:00,
2013-04-26 02:24:00,45.2,40.7,29.60,North,0,0.0,0.0,84,0.00,,,0.00,WUHU216HW,2013-04-26 09:24:00,
2013-04-26 02:26:00,45.2,40.7,29.60,North,0,0.0,0.0,84,0.00,,,0.00,WUHU216HW,2013-04-26 09:26:00,
2013-04-26 02:27:00,45.2,40.7,29.60,North,0,0.0,0.0,84,0.00,,,0.00,WUHU216HW,2013-04-26 09:27:00,
2013-04-26 02:28:00,45.0,40.5,29.60,North,0,0.0,0.0,84,0.00,,,0.00,WUHU216HW,2013-04-26 09:28:00,
2013-04-26 02:29:00,45.0,40.1,29.60,North,0,0.0,0.0,83,0.00,,,0.00,WUHU216HW,2013-04-26 09:29:00,
2013-04-26 02:31:00,45.0,40.1,29.60,North,0,0.0,0.0,83,0.00,,,0.00,WUHU216HW,2013-04-26 09:31:00,
2013-04-26 02:32:00,45.0,40.1,29.60,North,0,0.0,0.0,83,0.00,,,0.00,WUHU216HW,2013-04-26 09:32:00,
2013-04-26 02:34:00,45.0,40.1,29.60,North,0,0.0,0.0,83,0.00,,,0.00,WUHU216HW,2013-04-26 09:34:00,
2013-04-26 02:37:00,45.0,40.1,29.60,North,0,0.0,0.0,83,0.00,,,0.00,WUHU216HW,2013-04-26 09:37:00,
2013-04-26 02:38:00,45.0,40.1,29.59,North,0,0.0,0.0,83,0.00,,,0.00,WUHU216HW,2013-04-26 09:38:00,
2013-04-26 02:39:00,45.0,40.1,29.60,North,0,0.0,0.0,83,0.00,,,0.00,WUHU216HW,2013-04-26 09:39:00,
2013-04-26 02:42:00,45.0,40.1,29.60,North,0,0.0,0.0,83,0.00,,,0.00,WUHU216HW,2013-04-26 09:42:00,
2013-04-26 02:43:00,45.0,40.5,29.60,North,0,0.0,0.0,84,0.00,,,0.00,WUHU216HW,2013-04-26 09:43:00,
2013-04-26 02:44:00,45.0,40.5,29.60,North,0,0.0,0.0,84,0.00,,,0.00,WUHU216HW,2013-04-26 09:44:00,
2013-04-26 02:47:00,44.8,40.3,29.60,North,0,0.0,0.0,84,0.00,,,0.00,WUHU216HW,2013-04-26 09:47:00,
2013-04-26 02:48:00,44.8,40.3,29.60,North,0,0.0,0.0,84,0.00,,,0.00,WUHU216HW,2013-04-26 09:48:00,
2013-04-26 02:49:00,44.8,40.3,29.60,North,0,0.0,0.0,84,0.00,,,0.00,WUHU216HW,2013-04-26 09:49:00,
2013-04-26 02:53:00,44.6,40.2,29.61,North,0,0.0,0.0,84,0.00,,,0.00,WUHU216HW,2013-04-26 09:53:00,
2013-04-26 02:54:00,44.6,40.2,29.61,North,0,0.0,0.0,84,0.00,,,0.00,WUHU216HW,2013-04-26 09:54:00,
2013-04-26 02:58:00,44.6,40.4,29.61,North,0,0.0,0.0,85,0.00,,,0.00,WUHU216HW,2013-04-26 09:58:00,
2013-04-26 02:59:00,44.5,40.2,29.61,North,0,0.0,0.0,85,0.00,,,0.00,WUHU216HW,2013-04-26 09:59:00,
2013-04-26 03:03:00,44.3,39.8,29.61,North,0,0.0,0.0,84,0.00,,,0.00,WUHU216HW,2013-04-26 10:03:00,
2013-04-26 03:04:00,44.3,39.8,29.61,North,0,0.0,0.0,84,0.00,,,0.00,WUHU216HW,2013-04-26 10:04:00,
2013-04-26 03:08:00,44.1,39.6,29.61,North,0,0.0,0.0,84,0.00,,,0.00,WUHU216HW,2013-04-26 10:08:00,
2013-04-26 03:09:00,44.1,39.6,29.61,North,0,0.0,0.0,84,0.00,,,0.00,WUHU216HW,2013-04-26 10:09:00,
2013-04-26 03:13:00,43.9,39.4,29.61,North,0,0.0,0.0,84,0.00,,,0.00,WUHU216HW,2013-04-26 10:13:00,
2013-04-26 03:14:00,43.9,39.4,29.61,North,0,0.0,0.0,84,0.00,,,0.00,WUHU216HW,2013-04-26 10:14:00,
2013-04-26 03:15:00,43.9,39.4,29.61,North,0,0.0,0.0,84,0.00,,,0.00,WUHU216HW,2013-04-26 10:15:00,
2013-04-26 03:18:00,43.9,39.4,29.61,North,0,0.0,0.0,84,0.00,,,0.00,WUHU216HW,2013-04-26 10:18:00,
2013-04-26 03:19:00,43.9,39.4,29.61,North,0,0.0,0.0,84,0.00,,,0.00,WUHU216HW,2013-04-26 10:19:00,
2013-04-26 03:20:00,43.9,39.4,29.61,North,0,0.0,0.0,84,0.00,,,0.00,WUHU216HW,2013-04-26 10:20:00,
2013-04-26 03:23:00,43.7,39.5,29.61,North,0,0.0,0.0,85,0.00,,,0.00,WUHU216HW,2013-04-26 10:23:00,
2013-04-26 03:24:00,43.7,39.5,29.61,North,0,0.0,0.0,85,0.00,,,0.00,WUHU216HW,2013-04-26 10:24:00,
2013-04-26 03:25:00,43.7,39.5,29.61,North,0,0.0,0.0,85,0.00,,,0.00,WUHU216HW,2013-04-26 10:25:00,
2013-04-26 03:29:00,43.6,39.1,29.61,North,0,0.0,0.0,84,0.00,,,0.00,WUHU216HW,2013-04-26 10:29:00,
2013-04-26 03:30:00,43.6,39.3,29.61,North,0,0.0,0.0,85,0.00,,,0.00,WUHU216HW,2013-04-26 10:30:00,
2013-04-26 03:34:00,43.6,39.3,29.61,North,0,0.0,0.0,85,0.00,,,0.00,WUHU216HW,2013-04-26 10:34:00,
2013-04-26 03:35:00,43.6,39.3,29.61,North,0,0.0,0.0,85,0.00,,,0.00,WUHU216HW,2013-04-26 10:35:00,
2013-04-26 03:36:00,43.4,39.2,29.61,North,0,0.0,0.0,85,0.00,,,0.00,WUHU216HW,2013-04-26 10:36:00,
2013-04-26 03:39:00,43.4,39.2,29.61,North,0,0.0,0.0,85,0.00,,,0.00,WUHU216HW,2013-04-26 10:39:00,
2013-04-26 03:41:00,43.4,39.2,29.61,North,0,0.0,0.0,85,0.00,,,0.00,WUHU216HW,2013-04-26 10:41:00,
2013-04-26 03:44:00,43.4,39.2,29.61,North,0,0.0,0.0,85,0.00,,,0.00,WUHU216HW,2013-04-26 10:44:00,
2013-04-26 03:45:00,43.4,39.2,29.61,North,0,0.0,0.0,85,0.00,,,0.00,WUHU216HW,2013-04-26 10:45:00,
2013-04-26 03:46:00,43.4,39.2,29.61,North,0,0.0,0.0,85,0.00,,,0.00,WUHU216HW,2013-04-26 10:46:00,
2013-04-26 03:49:00,43.4,39.2,29.61,North,0,0.0,0.0,85,0.00,,,0.00,WUHU216HW,2013-04-26 10:49:00,
2013-04-26 03:50:00,43.2,39.0,29.61,North,0,0.0,0.0,85,0.00,,,0.00,WUHU216HW,2013-04-26 10:50:00,
2013-04-26 03:51:00,43.2,39.0,29.61,North,0,0.0,0.0,85,0.00,,,0.00,WUHU216HW,2013-04-26 10:51:00,
2013-04-26 03:55:00,43.2,39.0,29.62,North,0,0.0,0.0,85,0.00,,,0.00,WUHU216HW,2013-04-26 10:55:00,
2013-04-26 03:56:00,43.2,39.0,29.62,North,0,0.0,0.0,85,0.00,,,0.00,WUHU216HW,2013-04-26 10:56:00,
2013-04-26 04:00:00,43.2,39.0,29.61,North,0,0.0,0.0,85,0.00,,,0.00,WUHU216HW,2013-04-26 11:00:00,
2013-04-26 04:01:00,43.2,39.0,29.62,North,0,0.0,0.0,85,0.00,,,0.00,WUHU216HW,2013-04-26 11:01:00,
2013-04-26 04:05:00,43.0,38.8,29.62,North,0,0.0,0.0,85,0.00,,,0.00,WUHU216HW,2013-04-26 11:05:00,
2013-04-26 04:06:00,42.8,38.6,29.62,North,0,0.0,0.0,85,0.00,,,0.00,WUHU216HW,2013-04-26 11:06:00,
2013-04-26 04:10:00,42.8,38.6,29.62,North,0,0.0,0.0,85,0.00,,,0.00,WUHU216HW,2013-04-26 11:10:00,
2013-04-26 04:11:00,42.8,38.6,29.62,North,0,0.0,0.0,85,0.00,,,0.00,WUHU216HW,2013-04-26 11:11:00,
2013-04-26 04:12:00,42.8,38.6,29.63,North,0,0.0,0.0,85,0.00,,,0.00,WUHU216HW,2013-04-26 11:12:00,
2013-04-26 04:15:00,42.7,38.4,29.63,North,0,0.0,0.0,85,0.00,,,0.00,WUHU216HW,2013-04-26 11:15:00,
2013-04-26 04:16:00,42.7,38.4,29.62,North,0,0.0,0.0,85,0.00,,,0.00,WUHU216HW,2013-04-26 11:16:00,
2013-04-26 04:17:00,42.7,38.4,29.63,North,0,0.0,0.0,85,0.00,,,0.00,WUHU216HW,2013-04-26 11:17:00,
2013-04-26 04:20:00,42.7,38.4,29.62,North,0,0.0,0.0,85,0.00,,,0.00,WUHU216HW,2013-04-26 11:20:00,
2013-04-26 04:21:00,42.7,38.4,29.62,North,0,0.0,0.0,85,0.00,,,0.00,WUHU216HW,2013-04-26 11:21:00,
2013-04-26 04:22:00,42.7,38.4,29.62,North,0,0.0,0.0,85,0.00,,,0.00,WUHU216HW,2013-04-26 11:22:00,
2013-04-26 04:25:00,42.5,38.3,29.62,North,0,0.0,0.0,85,0.00,,,0.00,WUHU216HW,2013-04-26 11:25:00,
2013-04-26 04:26:00,42.5,38.3,29.62,North,0,0.0,0.0,85,0.00,,,0.00,WUHU216HW,2013-04-26 11:26:00,
2013-04-26 04:27:00,42.5,38.3,29.62,North,0,0.0,0.0,85,0.00,,,0.00,WUHU216HW,2013-04-26 11:27:00,
2013-04-26 04:30:00,42.5,38.3,29.62,North,0,0.0,0.0,85,0.00,,,0.00,WUHU216HW,2013-04-26 11:30:00,
2013-04-26 04:31:00,42.5,38.3,29.62,North,0,0.0,0.0,85,0.00,,,0.00,WUHU216HW,2013-04-26 11:31:00,
2013-04-26 04:32:00,42.5,38.5,29.62,North,0,0.0,0.0,86,0.00,,,0.00,WUHU216HW,2013-04-26 11:32:00,
2013-04-26 04:35:00,42.3,38.3,29.62,North,0,0.0,0.0,86,0.00,,,0.00,WUHU216HW,2013-04-26 11:35:00,
2013-04-26 04:36:00,42.3,38.3,29.62,North,0,0.0,0.0,86,0.00,,,0.00,WUHU216HW,2013-04-26 11:36:00,
2013-04-26 04:37:00,42.3,38.3,29.62,North,0,0.0,0.0,86,0.00,,,0.00,WUHU216HW,2013-04-26 11:37:00,
2013-04-26 04:38:00,42.3,38.3,29.62,North,0,0.0,0.0,86,0.00,,,0.00,WUHU216HW,2013-04-26 11:38:00,
2013-04-26 04:41:00,42.3,38.3,29.62,North,0,0.0,0.0,86,0.00,,,0.00,WUHU216HW,2013-04-26 11:41:00,
2013-04-26 04:42:00,42.3,38.3,29.62,North,0,0.0,0.0,86,0.00,,,0.00,WUHU216HW,2013-04-26 11:42:00,
2013-04-26 04:43:00,42.3,38.3,29.62,North,0,0.0,0.0,86,0.00,,,0.00,WUHU216HW,2013-04-26 11:43:00,
2013-04-26 04:46:00,42.1,37.9,29.62,North,0,0.0,0.0,85,0.00,,,0.00,WUHU216HW,2013-04-26 11:46:00,
2013-04-26 04:47:00,42.1,37.9,29.62,North,0,0.0,0.0,85,0.00,,,0.00,WUHU216HW,2013-04-26 11:47:00,
2013-04-26 04:48:00,42.1,37.9,29.62,North,0,0.0,0.0,85,0.00,,,0.00,WUHU216HW,2013-04-26 11:48:00,
2013-04-26 04:49:00,42.1,37.9,29.62,North,0,0.0,0.0,85,0.00,,,0.00,WUHU216HW,2013-04-26 11:49:00,
2013-04-26 04:51:00,42.1,37.9,29.62,North,0,0.0,0.0,85,0.00,,,0.00,WUHU216HW,2013-04-26 11:51:00,
2013-04-26 04:52:00,42.1,37.9,29.62,North,0,0.0,0.0,85,0.00,,,0.00,WUHU216HW,2013-04-26 11:52:00,
2013-04-26 04:53:00,42.1,37.9,29.62,North,0,0.0,0.0,85,0.00,,,0.00,WUHU216HW,2013-04-26 11:53:00,
2013-04-26 04:54:00,42.1,37.9,29.62,North,0,0.0,0.0,85,0.00,,,0.00,WUHU216HW,2013-04-26 11:54:00,
2013-04-26 04:56:00,42.1,37.9,29.62,North,0,0.0,0.0,85,0.00,,,0.00,WUHU216HW,2013-04-26 11:56:00,
2013-04-26 04:57:00,42.1,37.9,29.62,North,0,0.0,0.0,85,0.00,,,0.00,WUHU216HW,2013-04-26 11:57:00,
2013-04-26 04:58:00,42.1,38.2,29.62,North,0,0.0,0.0,86,0.00,,,0.00,WUHU216HW,2013-04-26 11:58:00,
2013-04-26 04:59:00,42.3,38.3,29.62,North,0,0.0,0.0,86,0.00,,,0.00,WUHU216HW,2013-04-26 11:59:00,
2013-04-26 05:01:00,42.3,38.3,29.62,North,0,0.0,0.0,86,0.00,,,0.00,WUHU216HW,2013-04-26 12:01:00,
2013-04-26 05:02:00,42.3,38.3,29.62,North,0,0.0,0.0,86,0.00,,,0.00,WUHU216HW,2013-04-26 12:02:00,
2013-04-26 05:03:00,42.3,38.1,29.62,North,0,0.0,0.0,85,0.00,,,0.00,WUHU216HW,2013-04-26 12:03:00,
2013-04-26 05:04:00,42.3,38.1,29.62,North,0,0.0,0.0,85,0.00,,,0.00,WUHU216HW,2013-04-26 12:04:00,
2013-04-26 05:05:00,42.3,38.3,29.62,North,0,0.0,0.0,86,0.00,,,0.00,WUHU216HW,2013-04-26 12:05:00,
2013-04-26 05:06:00,42.3,38.3,29.62,North,0,0.0,0.0,86,0.00,,,0.00,WUHU216HW,2013-04-26 12:06:00,
2013-04-26 05:07:00,42.3,38.3,29.62,North,0,0.0,0.0,86,0.00,,,0.00,WUHU216HW,2013-04-26 12:07:00,
2013-04-26 05:08:00,42.3,38.3,29.62,North,0,0.0,0.0,86,0.00,,,0.00,WUHU216HW,2013-04-26 12:08:00,
2013-04-26 05:09:00,42.3,38.3,29.62,North,0,0.0,0.0,86,0.00,,,0.00,WUHU216HW,2013-04-26 12:09:00,
2013-04-26 05:10:00,42.3,38.3,29.62,North,0,0.0,0.0,86,0.00,,,0.00,WUHU216HW,2013-04-26 12:10:00,
2013-04-26 05:11:00,42.3,38.3,29.62,North,0,0.0,0.0,86,0.00,,,0.00,WUHU216HW,2013-04-26 12:11:00,
2013-04-26 05:12:00,42.3,38.3,29.62,North,0,0.0,0.0,86,0.00,,,0.00,WUHU216HW,2013-04-26 12:12:00,
2013-04-26 05:13:00,42.3,38.3,29.62,North,0,0.0,0.0,86,0.00,,,0.00,WUHU216HW,2013-04-26 12:13:00,
2013-04-26 05:36:00,42.3,38.3,29.63,North,0,0.0,0.0,86,0.00,,,0.00,WUHU216HW,2013-04-26 12:36:00,
2013-04-26 05:37:00,42.3,38.3,29.63,North,0,0.0,0.0,86,0.00,,,0.00,WUHU216HW,2013-04-26 12:37:00,
2013-04-26 05:41:00,42.5,38.5,29.63,North,0,0.0,0.0,86,0.00,,,0.00,WUHU216HW,2013-04-26 12:41:00,
2013-04-26 05:42:00,42.7,38.7,29.63,North,0,0.0,0.0,86,0.00,,,0.00,WUHU216HW,2013-04-26 12:42:00,
2013-04-26 05:46:00,42.8,39.3,29.63,North,0,0.0,0.0,87,0.00,,,0.00,WUHU216HW,2013-04-26 12:46:00,
2013-04-26 05:47:00,42.8,39.3,29.63,North,0,0.0,0.0,87,0.00,,,0.00,WUHU216HW,2013-04-26 12:47:00,
2013-04-26 05:52:00,43.0,39.4,29.63,North,0,0.0,0.0,87,0.00,,,0.00,WUHU216HW,2013-04-26 12:52:00,
2013-04-26 05:57:00,43.2,39.6,29.63,North,0,0.0,0.0,87,0.00,,,0.00,WUHU216HW,2013-04-26 12:57:00,
2013-04-26 05:58:00,43.2,39.6,29.63,North,0,0.0,0.0,87,0.00,,,0.00,WUHU216HW,2013-04-26 12:58:00,
2013-04-26 06:02:00,43.4,40.1,29.63,North,0,0.0,0.0,88,0.00,,,0.00,WUHU216HW,2013-04-26 13:02:00,
2013-04-26 06:03:00,43.4,40.1,29.63,North,0,0.0,0.0,88,0.00,,,0.00,WUHU216HW,2013-04-26 13:03:00,
2013-04-26 06:08:00,43.6,40.2,29.63,North,0,0.0,0.0,88,0.00,,,0.00,WUHU216HW,2013-04-26 13:08:00,
2013-04-26 06:13:00,43.7,40.4,29.63,North,0,0.0,0.0,88,0.00,,,0.00,WUHU216HW,2013-04-26 13:13:00,
2013-04-26 06:18:00,44.3,41.0,29.63,North,0,0.0,0.0,88,0.00,,,0.00,WUHU216HW,2013-04-26 13:18:00,
2013-04-26 06:23:00,44.5,41.1,29.63,North,0,0.0,0.0,88,0.00,,,0.00,WUHU216HW,2013-04-26 13:23:00,
2013-04-26 06:24:00,44.5,41.1,29.63,North,0,0.0,0.0,88,0.00,,,0.00,WUHU216HW,2013-04-26 13:24:00,
2013-04-26 06:28:00,44.6,41.3,29.63,North,0,0.0,0.0,88,0.00,,,0.00,WUHU216HW,2013-04-26 13:28:00,
2013-04-26 06:29:00,44.6,41.3,29.63,North,0,0.0,0.0,88,0.00,,,0.00,WUHU216HW,2013-04-26 13:29:00,
2013-04-26 06:33:00,44.8,41.5,29.63,North,0,0.0,0.0,88,0.00,,,0.00,WUHU216HW,2013-04-26 13:33:00,
2013-04-26 06:34:00,44.8,41.5,29.63,North,0,0.0,0.0,88,0.00,,,0.00,WUHU216HW,2013-04-26 13:34:00,
2013-04-26 06:38:00,44.8,41.5,29.63,North,0,0.0,0.0,88,0.00,,,0.00,WUHU216HW,2013-04-26 13:38:00,
2013-04-26 06:39:00,44.8,41.5,29.64,North,0,0.0,0.0,88,0.00,,,0.00,WUHU216HW,2013-04-26 13:39:00,
2013-04-26 06:43:00,44.8,41.5,29.63,North,0,0.0,0.0,88,0.00,,,0.00,WUHU216HW,2013-04-26 13:43:00,
2013-04-26 06:44:00,44.6,41.3,29.63,North,0,0.0,0.0,88,0.00,,,0.00,WUHU216HW,2013-04-26 13:44:00,
2013-04-26 06:48:00,44.8,41.5,29.63,North,0,0.0,0.0,88,0.00,,,0.00,WUHU216HW,2013-04-26 13:48:00,
2013-04-26 06:49:00,44.8,41.5,29.63,North,0,0.0,0.0,88,0.00,,,0.00,WUHU216HW,2013-04-26 13:49:00,
2013-04-26 06:50:00,44.8,41.5,29.63,North,0,0.0,0.0,88,0.00,,,0.00,WUHU216HW,2013-04-26 13:50:00,
2013-04-26 06:53:00,45.0,41.7,29.63,North,0,0.0,0.0,88,0.00,,,0.00,WUHU216HW,2013-04-26 13:53:00,
2013-04-26 06:54:00,45.0,41.7,29.63,North,0,0.0,0.0,88,0.00,,,0.00,WUHU216HW,2013-04-26 13:54:00,
2013-04-26 06:55:00,44.8,41.5,29.64,North,0,0.0,0.0,88,0.00,,,0.00,WUHU216HW,2013-04-26 13:55:00,
2013-04-26 06:58:00,45.0,41.7,29.63,North,0,0.0,0.0,88,0.00,,,0.00,WUHU216HW,2013-04-26 13:58:00,
2013-04-26 06:59:00,45.0,41.7,29.63,North,0,0.0,0.0,88,0.00,,,0.00,WUHU216HW,2013-04-26 13:59:00,
2013-04-26 07:00:00,45.0,41.7,29.63,North,0,0.0,0.0,88,0.00,,,0.00,WUHU216HW,2013-04-26 14:00:00,
2013-04-26 07:04:00,45.0,41.7,29.64,North,0,0.0,0.0,88,0.00,,,0.00,WUHU216HW,2013-04-26 14:04:00,
2013-04-26 07:05:00,45.0,41.7,29.64,North,0,0.0,0.0,88,0.00,,,0.00,WUHU216HW,2013-04-26 14:05:00,
2013-04-26 07:09:00,45.0,41.7,29.64,North,0,0.0,0.0,88,0.00,,,0.00,WUHU216HW,2013-04-26 14:09:00,
2013-04-26 07:10:00,45.0,41.7,29.64,North,0,0.0,0.0,88,0.00,,,0.00,WUHU216HW,2013-04-26 14:10:00,
2013-04-26 07:14:00,45.0,41.7,29.64,North,0,0.0,0.0,88,0.00,,,0.00,WUHU216HW,2013-04-26 14:14:00,
2013-04-26 07:15:00,45.2,41.9,29.64,North,0,0.0,0.0,88,0.00,,,0.00,WUHU216HW,2013-04-26 14:15:00,
2013-04-26 07:16:00,45.2,41.9,29.64,North,0,0.0,0.0,88,0.00,,,0.00,WUHU216HW,2013-04-26 14:16:00,
2013-04-26 07:19:00,45.2,41.9,29.64,North,0,0.0,0.0,88,0.00,,,0.00,WUHU216HW,2013-04-26 14:19:00,
2013-04-26 07:20:00,45.2,41.9,29.64,North,0,0.0,0.0,88,0.00,,,0.00,WUHU216HW,2013-04-26 14:20:00,
2013-04-26 07:21:00,45.2,41.9,29.64,North,0,0.0,0.0,88,0.00,,,0.00,WUHU216HW,2013-04-26 14:21:00,
2013-04-26 07:24:00,45.4,42.0,29.64,North,0,0.0,0.0,88,0.00,,,0.00,WUHU216HW,2013-04-26 14:24:00,
2013-04-26 07:25:00,45.4,42.0,29.65,North,0,0.0,0.0,88,0.00,,,0.00,WUHU216HW,2013-04-26 14:25:00,
2013-04-26 07:27:00,45.4,42.0,29.65,North,0,0.0,0.0,88,0.00,,,0.00,WUHU216HW,2013-04-26 14:27:00,
2013-04-26 07:29:00,45.5,42.2,29.65,North,0,0.0,0.0,88,0.00,,,0.00,WUHU216HW,2013-04-26 14:29:00,
2013-04-26 07:30:00,45.5,42.2,29.65,North,0,0.0,0.0,88,0.00,,,0.00,WUHU216HW,2013-04-26 14:30:00,
2013-04-26 07:31:00,45.5,42.6,29.65,North,0,0.0,0.0,89,0.00,,,0.00,WUHU216HW,2013-04-26 14:31:00,
2013-04-26 07:32:00,45.5,42.6,29.65,North,0,0.0,0.0,89,0.00,,,0.00,WUHU216HW,2013-04-26 14:32:00,
2013-04-26 07:34:00,45.5,42.2,29.65,North,0,0.0,0.0,88,0.00,,,0.00,WUHU216HW,2013-04-26 14:34:00,
2013-04-26 07:36:00,45.7,42.4,29.65,North,0,0.0,0.0,88,0.00,,,0.00,WUHU216HW,2013-04-26 14:36:00,
2013-04-26 07:37:00,45.7,42.4,29.65,North,0,0.0,0.0,88,0.00,,,0.00,WUHU216HW,2013-04-26 14:37:00,
2013-04-26 07:40:00,45.7,42.4,29.65,North,0,0.0,0.0,88,0.00,,,0.00,WUHU216HW,2013-04-26 14:40:00,
2013-04-26 07:41:00,45.9,42.6,29.64,North,0,0.0,0.0,88,0.00,,,0.00,WUHU216HW,2013-04-26 14:41:00,
2013-04-26 07:42:00,45.9,42.6,29.65,North,0,0.0,0.0,88,0.00,,,0.00,WUHU216HW,2013-04-26 14:42:00,
2013-04-26 07:45:00,45.9,42.6,29.65,North,0,0.0,0.0,88,0.00,,,0.00,WUHU216HW,2013-04-26 14:45:00,
2013-04-26 07:46:00,46.1,42.8,29.64,North,0,0.0,0.0,88,0.00,,,0.00,WUHU216HW,2013-04-26 14:46:00,
2013-04-26 07:47:00,46.1,42.8,29.65,North,0,0.0,0.0,88,0.00,,,0.00,WUHU216HW,2013-04-26 14:47:00,
2013-04-26 07:50:00,46.1,42.8,29.65,North,0,0.0,0.0,88,0.00,,,0.00,WUHU216HW,2013-04-26 14:50:00,
2013-04-26 07:51:00,46.1,42.8,29.65,North,0,0.0,0.0,88,0.00,,,0.00,WUHU216HW,2013-04-26 14:51:00,
2013-04-26 07:52:00,46.3,42.9,29.65,North,0,0.0,0.0,88,0.00,,,0.00,WUHU216HW,2013-04-26 14:52:00,
2013-04-26 07:56:00,46.3,42.9,29.65,North,0,0.0,0.0,88,0.00,,,0.00,WUHU216HW,2013-04-26 14:56:00,
2013-04-26 07:57:00,46.3,42.9,29.65,North,0,0.0,0.0,88,0.00,,,0.00,WUHU216HW,2013-04-26 14:57:00,
2013-04-26 08:01:00,46.4,43.1,29.65,North,0,0.0,0.0,88,0.00,,,0.00,WUHU216HW,2013-04-26 15:01:00,
2013-04-26 08:02:00,46.4,43.1,29.65,North,0,0.0,0.0,88,0.00,,,0.00,WUHU216HW,2013-04-26 15:02:00,
2013-04-26 08:06:00,46.6,43.3,29.65,North,0,0.0,0.0,88,0.00,,,0.00,WUHU216HW,2013-04-26 15:06:00,
2013-04-26 08:07:00,46.6,43.3,29.65,North,0,0.0,0.0,88,0.00,,,0.00,WUHU216HW,2013-04-26 15:07:00,
2013-04-26 08:08:00,46.6,43.3,29.65,North,0,0.0,0.0,88,0.00,,,0.00,WUHU216HW,2013-04-26 15:08:00,
2013-04-26 08:11:00,46.6,43.3,29.65,North,0,0.0,0.0,88,0.00,,,0.00,WUHU216HW,2013-04-26 15:11:00,
2013-04-26 08:12:00,46.8,43.5,29.65,North,0,0.0,0.0,88,0.00,,,0.00,WUHU216HW,2013-04-26 15:12:00,
2013-04-26 08:13:00,46.8,43.5,29.65,North,0,0.0,0.0,88,0.00,,,0.00,WUHU216HW,2013-04-26 15:13:00,
2013-04-26 08:16:00,46.8,43.5,29.65,North,0,0.0,0.0,88,0.00,,,0.00,WUHU216HW,2013-04-26 15:16:00,
2013-04-26 08:17:00,46.8,43.5,29.65,North,0,0.0,0.0,88,0.00,,,0.00,WUHU216HW,2013-04-26 15:17:00,
2013-04-26 08:18:00,46.8,43.5,29.65,North,0,0.0,0.0,88,0.00,,,0.00,WUHU216HW,2013-04-26 15:18:00,
2013-04-26 08:19:00,46.8,43.5,29.65,North,0,0.0,0.0,88,0.00,,,0.00,WUHU216HW,2013-04-26 15:19:00,
2013-04-26 08:21:00,47.0,43.7,29.65,North,0,0.0,0.0,88,0.00,,,0.00,WUHU216HW,2013-04-26 15:21:00,
2013-04-26 08:22:00,47.0,43.7,29.65,North,0,0.0,0.0,88,0.00,,,0.00,WUHU216HW,2013-04-26 15:22:00,
2013-04-26 08:23:00,47.0,43.7,29.65,North,0,0.0,0.0,88,0.00,,,0.00,WUHU216HW,2013-04-26 15:23:00,
2013-04-26 08:24:00,47.0,43.7,29.65,North,0,0.0,0.0,88,0.00,,,0.00,WUHU216HW,2013-04-26 15:24:00,
2013-04-26 08:27:00,47.0,43.7,29.65,North,0,0.0,0.0,88,0.00,,,0.00,WUHU216HW,2013-04-26 15:27:00,
2013-04-26 08:29:00,47.0,43.7,29.65,North,0,0.0,0.0,88,0.00,,,0.00,WUHU216HW,2013-04-26 15:29:00,
2013-04-26 08:32:00,47.0,43.7,29.66,North,0,0.0,0.0,88,0.00,,,0.00,WUHU216HW,2013-04-26 15:32:00,
2013-04-26 08:33:00,47.0,43.7,29.66,North,0,0.0,0.0,88,0.00,,,0.00,WUHU216HW,2013-04-26 15:33:00,
2013-04-26 08:34:00,47.0,43.4,29.66,North,0,0.0,0.0,87,0.00,,,0.00,WUHU216HW,2013-04-26 15:34:00,
2013-04-26 08:37:00,47.0,43.4,29.65,North,0,0.0,0.0,87,0.00,,,0.00,WUHU216HW,2013-04-26 15:37:00,
2013-04-26 08:38:00,47.2,43.6,29.66,North,0,0.0,0.0,87,0.00,,,0.00,WUHU216HW,2013-04-26 15:38:00,
2013-04-26 08:39:00,47.2,43.8,29.66,North,0,0.0,0.0,88,0.00,,,0.00,WUHU216HW,2013-04-26 15:39:00,
2013-04-26 08:42:00,47.2,43.6,29.66,North,0,0.0,0.0,87,0.00,,,0.00,WUHU216HW,2013-04-26 15:42:00,
2013-04-26 08:43:00,47.2,43.6,29.66,North,0,0.0,0.0,87,0.00,,,0.00,WUHU216HW,2013-04-26 15:43:00,
2013-04-26 08:44:00,47.2,43.6,29.66,North,0,0.0,0.0,87,0.00,,,0.00,WUHU216HW,2013-04-26 15:44:00,
2013-04-26 08:47:00,47.2,43.6,29.66,North,0,0.0,0.0,87,0.00,,,0.00,WUHU216HW,2013-04-26 15:47:00,
2013-04-26 08:48:00,47.2,43.8,29.66,North,0,0.0,0.0,88,0.00,,,0.00,WUHU216HW,2013-04-26 15:48:00,
2013-04-26 08:49:00,47.3,43.7,29.66,North,0,0.0,0.0,87,0.00,,,0.00,WUHU216HW,2013-04-26 15:49:00,
2013-04-26 08:52:00,47.3,43.7,29.66,North,0,0.0,0.0,87,0.00,,,0.00,WUHU216HW,2013-04-26 15:52:00,
2013-04-26 08:53:00,47.3,43.7,29.66,North,0,0.0,0.0,87,0.00,,,0.00,WUHU216HW,2013-04-26 15:53:00,
2013-04-26 08:54:00,47.3,43.7,29.66,North,0,0.0,0.0,87,0.00,,,0.00,WUHU216HW,2013-04-26 15:54:00,
2013-04-26 08:57:00,47.5,43.8,29.66,North,0,0.0,0.0,87,0.00,,,0.00,WUHU216HW,2013-04-26 15:57:00,
2013-04-26 08:58:00,47.5,43.8,29.66,North,0,0.0,0.0,87,0.00,,,0.00,WUHU216HW,2013-04-26 15:58:00,
2013-04-26 08:59:00,47.5,43.8,29.66,North,0,0.0,0.0,87,0.00,,,0.00,WUHU216HW,2013-04-26 15:59:00,
2013-04-26 09:00:00,47.5,43.8,29.66,North,0,0.0,0.0,87,0.00,,,0.00,WUHU216HW,2013-04-26 16:00:00,
2013-04-26 09:02:00,47.5,43.8,29.66,North,0,0.0,0.0,87,0.00,,,0.00,WUHU216HW,2013-04-26 16:02:00,
2013-04-26 09:03:00,47.5,43.8,29.66,North,0,0.0,0.0,87,0.00,,,0.00,WUHU216HW,2013-04-26 16:03:00,
2013-04-26 09:05:00,47.5,43.6,29.66,North,0,0.0,0.0,86,0.00,,,0.00,WUHU216HW,2013-04-26 16:05:00,
2013-04-26 09:08:00,47.5,43.8,29.66,North,0,0.0,0.0,87,0.00,,,0.00,WUHU216HW,2013-04-26 16:08:00,
2013-04-26 09:10:00,47.7,44.0,29.66,North,0,0.0,0.0,87,0.00,,,0.00,WUHU216HW,2013-04-26 16:10:00,
2013-04-26 09:11:00,47.9,43.9,29.66,North,0,0.0,0.0,86,0.00,,,0.00,WUHU216HW,2013-04-26 16:11:00,
2013-04-26 09:13:00,47.9,43.9,29.66,North,0,0.0,0.0,86,0.00,,,0.00,WUHU216HW,2013-04-26 16:13:00,
2013-04-26 09:14:00,47.9,43.9,29.66,North,0,0.0,0.0,86,0.00,,,0.00,WUHU216HW,2013-04-26 16:14:00,
2013-04-26 09:15:00,48.1,44.4,29.66,North,0,0.0,0.0,87,0.00,,,0.00,WUHU216HW,2013-04-26 16:15:00,
2013-04-26 09:16:00,48.1,44.1,29.66,North,0,0.0,0.0,86,0.00,,,0.00,WUHU216HW,2013-04-26 16:16:00,
2013-04-26 09:18:00,48.1,44.1,29.65,North,0,0.0,0.0,86,0.00,,,0.00,WUHU216HW,2013-04-26 16:18:00,
2013-04-26 09:19:00,48.2,44.3,29.65,North,0,0.0,0.0,86,0.00,,,0.00,WUHU216HW,2013-04-26 16:19:00,
2013-04-26 09:20:00,48.2,44.3,29.65,North,0,0.0,0.0,86,0.00,,,0.00,WUHU216HW,2013-04-26 16:20:00,
2013-04-26 09:22:00,48.2,44.3,29.65,North,0,0.0,0.0,86,0.00,,,0.00,WUHU216HW,2013-04-26 16:22:00,
2013-04-26 09:23:00,48.2,44.3,29.65,North,0,0.0,0.0,86,0.00,,,0.00,WUHU216HW,2013-04-26 16:23:00,
2013-04-26 09:24:00,48.4,44.4,29.65,North,0,0.0,0.0,86,0.00,,,0.00,WUHU216HW,2013-04-26 16:24:00,
2013-04-26 09:25:00,48.4,44.4,29.65,North,0,0.0,0.0,86,0.00,,,0.00,WUHU216HW,2013-04-26 16:25:00,
2013-04-26 09:27:00,48.4,44.4,29.65,North,0,0.0,0.0,86,0.00,,,0.00,WUHU216HW,2013-04-26 16:27:00,
2013-04-26 09:28:00,48.4,44.4,29.65,North,0,0.0,0.0,86,0.00,,,0.00,WUHU216HW,2013-04-26 16:28:00,
2013-04-26 09:29:00,48.6,44.6,29.65,North,0,0.0,0.0,86,0.00,,,0.00,WUHU216HW,2013-04-26 16:29:00,
2013-04-26 09:30:00,48.6,44.6,29.65,North,0,0.0,0.0,86,0.00,,,0.00,WUHU216HW,2013-04-26 16:30:00,
2013-04-26 09:31:00,48.6,44.6,29.65,North,0,0.0,0.0,86,0.00,,,0.00,WUHU216HW,2013-04-26 16:31:00,
2013-04-26 09:32:00,48.6,44.6,29.65,North,0,0.0,0.0,86,0.00,,,0.00,WUHU216HW,2013-04-26 16:32:00,
2013-04-26 09:33:00,48.6,44.6,29.65,North,0,0.0,0.0,86,0.00,,,0.00,WUHU216HW,2013-04-26 16:33:00,
2013-04-26 09:34:00,48.8,44.7,29.65,North,0,0.0,0.0,86,0.00,,,0.00,WUHU216HW,2013-04-26 16:34:00,
2013-04-26 09:35:00,48.8,44.7,29.65,North,0,0.0,0.0,86,0.00,,,0.00,WUHU216HW,2013-04-26 16:35:00,
2013-04-26 09:36:00,48.8,44.5,29.65,North,0,0.0,0.0,85,0.00,,,0.00,WUHU216HW,2013-04-26 16:36:00,
2013-04-26 09:38:00,48.8,44.5,29.65,North,0,0.0,0.0,85,0.00,,,0.00,WUHU216HW,2013-04-26 16:38:00,
2013-04-26 09:39:00,48.8,44.5,29.65,North,0,0.0,0.0,85,0.00,,,0.00,WUHU216HW,2013-04-26 16:39:00,
2013-04-26 09:41:00,48.8,44.5,29.65,North,0,0.0,0.0,85,0.00,,,0.00,WUHU216HW,2013-04-26 16:41:00,
2013-04-26 09:43:00,49.0,44.7,29.65,North,0,0.0,0.0,85,0.00,,,0.00,WUHU216HW,2013-04-26 16:43:00,
2013-04-26 09:44:00,48.8,44.5,29.65,North,0,0.0,0.0,85,0.00,,,0.00,WUHU216HW,2013-04-26 16:44:00,
2013-04-26 09:46:00,48.8,44.5,29.65,North,0,0.0,0.0,85,0.00,,,0.00,WUHU216HW,2013-04-26 16:46:00,
2013-04-26 09:48:00,48.8,44.5,29.65,North,0,0.0,0.0,85,0.00,,,0.00,WUHU216HW,2013-04-26 16:48:00,
2013-04-26 09:49:00,48.6,44.3,29.65,North,0,0.0,0.0,85,0.00,,,0.00,WUHU216HW,2013-04-26 16:49:00,
2013-04-26 09:50:00,48.6,44.3,29.65,North,0,0.0,0.0,85,0.00,,,0.00,WUHU216HW,2013-04-26 16:50:00,
2013-04-26 09:51:00,48.6,44.3,29.65,North,0,0.0,0.0,85,0.00,,,0.00,WUHU216HW,2013-04-26 16:51:00,
2013-04-26 09:53:00,48.6,44.3,29.65,North,0,0.0,0.0,85,0.00,,,0.00,WUHU216HW,2013-04-26 16:53:00,
2013-04-26 09:54:00,48.6,44.3,29.65,North,0,0.0,0.0,85,0.00,,,0.00,WUHU216HW,2013-04-26 16:54:00,
2013-04-26 09:55:00,48.8,44.5,29.65,North,0,0.0,0.0,85,0.00,,,0.00,WUHU216HW,2013-04-26 16:55:00,
2013-04-26 09:56:00,48.8,44.5,29.65,North,0,0.0,0.0,85,0.00,,,0.00,WUHU216HW,2013-04-26 16:56:00,
2013-04-26 09:57:00,49.0,44.7,29.66,North,0,0.0,0.0,85,0.00,,,0.00,WUHU216HW,2013-04-26 16:57:00,
2013-04-26 09:58:00,49.0,44.7,29.66,North,0,0.0,0.0,85,0.00,,,0.00,WUHU216HW,2013-04-26 16:58:00,
2013-04-26 09:59:00,49.0,44.7,29.66,North,0,0.0,0.0,85,0.00,,,0.00,WUHU216HW,2013-04-26 16:59:00,
2013-04-26 10:01:00,49.0,44.7,29.66,North,0,0.0,0.0,85,0.00,,,0.00,WUHU216HW,2013-04-26 17:01:00,
2013-04-26 10:02:00,49.0,44.7,29.66,North,0,0.0,0.0,85,0.00,,,0.00,WUHU216HW,2013-04-26 17:02:00,
2013-04-26 10:04:00,49.0,44.7,29.66,North,0,0.0,0.0,85,0.00,,,0.00,WUHU216HW,2013-04-26 17:04:00,
2013-04-26 10:06:00,49.1,44.8,29.66,North,0,0.0,0.0,85,0.00,,,0.00,WUHU216HW,2013-04-26 17:06:00,
2013-04-26 10:07:00,49.1,44.8,29.66,North,0,0.0,0.0,85,0.00,,,0.00,WUHU216HW,2013-04-26 17:07:00,
2013-04-26 10:09:00,49.1,44.8,29.66,North,0,0.0,0.0,85,0.00,,,0.00,WUHU216HW,2013-04-26 17:09:00,
2013-04-26 10:10:00,49.1,44.8,29.66,North,0,0.0,0.0,85,0.00,,,0.00,WUHU216HW,2013-04-26 17:10:00,
2013-04-26 10:11:00,49.3,44.9,29.66,North,0,0.0,0.0,85,0.00,,,0.00,WUHU216HW,2013-04-26 17:11:00,
2013-04-26 10:12:00,49.3,44.9,29.66,North,0,0.0,0.0,85,0.00,,,0.00,WUHU216HW,2013-04-26 17:12:00,
2013-04-26 10:14:00,49.3,44.9,29.65,North,0,0.0,0.0,85,0.00,,,0.00,WUHU216HW,2013-04-26 17:14:00,
2013-04-26 10:15:00,49.5,45.1,29.65,North,0,0.0,0.0,85,0.00,,,0.00,WUHU216HW,2013-04-26 17:15:00,
2013-04-26 10:16:00,49.5,45.1,29.65,North,0,0.0,0.0,85,0.00,,,0.00,WUHU216HW,2013-04-26 17:16:00,
2013-04-26 10:17:00,49.5,45.1,29.65,North,0,0.0,0.0,85,0.00,,,0.00,WUHU216HW,2013-04-26 17:17:00,
2013-04-26 10:18:00,49.7,45.6,29.65,North,0,0.0,0.0,86,0.00,,,0.00,WUHU216HW,2013-04-26 17:18:00,
2013-04-26 10:20:00,49.9,45.8,29.65,North,0,0.0,0.0,86,0.00,,,0.00,WUHU216HW,2013-04-26 17:20:00,
2013-04-26 10:21:00,49.9,45.8,29.65,North,0,0.0,0.0,86,0.00,,,0.00,WUHU216HW,2013-04-26 17:21:00,
2013-04-26 10:22:00,49.9,45.8,29.65,North,0,0.0,0.0,86,0.00,,,0.00,WUHU216HW,2013-04-26 17:22:00,
2013-04-26 10:23:00,49.9,45.8,29.66,North,0,0.0,0.0,86,0.00,,,0.00,WUHU216HW,2013-04-26 17:23:00,
2013-04-26 10:25:00,49.9,45.8,29.66,North,0,0.0,0.0,86,0.00,,,0.00,WUHU216HW,2013-04-26 17:25:00,
2013-04-26 10:26:00,50.0,45.9,29.66,North,0,0.0,0.0,86,0.00,,,0.00,WUHU216HW,2013-04-26 17:26:00,
2013-04-26 10:28:00,50.0,45.6,29.66,North,0,0.0,0.0,85,0.00,,,0.00,WUHU216HW,2013-04-26 17:28:00,
2013-04-26 10:30:00,50.2,45.8,29.66,North,0,0.0,0.0,85,0.00,,,0.00,WUHU216HW,2013-04-26 17:30:00,
2013-04-26 10:31:00,50.2,45.8,29.66,North,0,0.0,0.0,85,0.00,,,0.00,WUHU216HW,2013-04-26 17:31:00,
2013-04-26 10:33:00,50.4,46.0,29.66,North,0,0.0,0.0,85,0.00,,,0.00,WUHU216HW,2013-04-26 17:33:00,
2013-04-26 10:35:00,50.4,46.0,29.66,North,0,0.0,0.0,85,0.00,,,0.00,WUHU216HW,2013-04-26 17:35:00,
2013-04-26 10:36:00,50.6,46.2,29.66,North,0,0.0,0.0,85,0.00,,,0.00,WUHU216HW,2013-04-26 17:36:00,
2013-04-26 10:37:00,50.8,46.4,29.66,North,0,0.0,0.0,85,0.00,,,0.00,WUHU216HW,2013-04-26 17:37:00,
2013-04-26 10:38:00,50.8,46.4,29.66,North,0,0.0,0.0,85,0.00,,,0.00,WUHU216HW,2013-04-26 17:38:00,
2013-04-26 10:41:00,50.8,46.1,29.66,North,0,0.0,0.0,84,0.00,,,0.00,WUHU216HW,2013-04-26 17:41:00,
2013-04-26 10:42:00,50.8,46.1,29.67,North,0,0.0,0.0,84,0.00,,,0.00,WUHU216HW,2013-04-26 17:42:00,
2013-04-26 10:43:00,50.8,46.1,29.67,North,0,0.0,0.0,84,0.00,,,0.00,WUHU216HW,2013-04-26 17:43:00,
2013-04-26 10:46:00,50.8,46.1,29.67,North,0,0.0,0.0,84,0.00,,,0.00,WUHU216HW,2013-04-26 17:46:00,
2013-04-26 10:47:00,50.8,46.1,29.66,North,0,0.0,0.0,84,0.00,,,0.00,WUHU216HW,2013-04-26 17:47:00,
2013-04-26 10:48:00,50.8,46.1,29.66,North,0,0.0,0.0,84,0.00,,,0.00,WUHU216HW,2013-04-26 17:48:00,
2013-04-26 10:49:00,50.8,46.1,29.66,North,0,0.0,0.0,84,0.00,,,0.00,WUHU216HW,2013-04-26 17:49:00,
2013-04-26 10:51:00,50.8,45.7,29.67,North,0,0.0,0.0,83,0.00,,,0.00,WUHU216HW,2013-04-26 17:51:00,
2013-04-26 10:52:00,50.8,45.7,29.67,North,0,0.0,0.0,83,0.00,,,0.00,WUHU216HW,2013-04-26 17:52:00,
2013-04-26 10:53:00,50.8,45.7,29.67,North,0,0.0,0.0,83,0.00,,,0.00,WUHU216HW,2013-04-26 17:53:00,
2013-04-26 10:54:00,50.8,45.7,29.67,North,0,0.0,0.0,83,0.00,,,0.00,WUHU216HW,2013-04-26 17:54:00,
2013-04-26 10:56:00,50.8,45.7,29.67,North,0,0.0,0.0,83,0.00,,,0.00,WUHU216HW,2013-04-26 17:56:00,
2013-04-26 10:57:00,50.8,45.7,29.67,North,0,0.0,0.0,83,0.00,,,0.00,WUHU216HW,2013-04-26 17:57:00,
2013-04-26 10:58:00,50.8,45.7,29.67,North,0,0.0,0.0,83,0.00,,,0.00,WUHU216HW,2013-04-26 17:58:00,
2013-04-26 10:59:00,50.8,45.7,29.67,North,0,0.0,0.0,83,0.00,,,0.00,WUHU216HW,2013-04-26 17:59:00,
2013-04-26 11:01:00,50.8,45.7,29.67,North,0,0.0,0.0,83,0.00,,,0.00,WUHU216HW,2013-04-26 18:01:00,
2013-04-26 11:02:00,50.8,45.7,29.67,North,0,0.0,0.0,83,0.00,,,0.00,WUHU216HW,2013-04-26 18:02:00,
2013-04-26 11:03:00,50.8,45.7,29.67,North,0,0.0,0.0,83,0.00,,,0.00,WUHU216HW,2013-04-26 18:03:00,
2013-04-26 11:04:00,50.8,45.7,29.67,North,0,0.0,0.0,83,0.00,,,0.00,WUHU216HW,2013-04-26 18:04:00,
2013-04-26 11:06:00,50.8,45.7,29.67,North,0,0.0,0.0,83,0.00,,,0.00,WUHU216HW,2013-04-26 18:06:00,
2013-04-26 11:07:00,50.8,45.7,29.67,North,0,0.0,0.0,83,0.00,,,0.00,WUHU216HW,2013-04-26 18:07:00,
2013-04-26 11:08:00,50.8,45.7,29.68,North,0,0.0,0.0,83,0.00,,,0.00,WUHU216HW,2013-04-26 18:08:00,
2013-04-26 11:09:00,50.8,45.7,29.68,North,0,0.0,0.0,83,0.00,,,0.00,WUHU216HW,2013-04-26 18:09:00,
2013-04-26 11:11:00,50.8,45.7,29.68,North,0,0.0,0.0,83,0.00,,,0.00,WUHU216HW,2013-04-26 18:11:00,
2013-04-26 11:13:00,50.8,45.7,29.68,North,0,0.0,0.0,83,0.00,,,0.00,WUHU216HW,2013-04-26 18:13:00,
2013-04-26 11:14:00,50.8,45.7,29.68,North,0,0.0,0.0,83,0.00,,,0.00,WUHU216HW,2013-04-26 18:14:00,
2013-04-26 11:16:00,50.9,45.9,29.68,North,0,0.0,0.0,83,0.00,,,0.00,WUHU216HW,2013-04-26 18:16:00,
2013-04-26 11:17:00,50.9,45.9,29.68,North,0,0.0,0.0,83,0.00,,,0.00,WUHU216HW,2013-04-26 18:17:00,
2013-04-26 11:18:00,51.1,46.1,29.68,North,0,0.0,0.0,83,0.00,,,0.00,WUHU216HW,2013-04-26 18:18:00,
2013-04-26 11:19:00,51.1,46.1,29.68,North,0,0.0,0.0,83,0.00,,,0.00,WUHU216HW,2013-04-26 18:19:00,
2013-04-26 11:20:00,51.3,46.3,29.68,North,0,0.0,0.0,83,0.00,,,0.00,WUHU216HW,2013-04-26 18:20:00,
2013-04-26 11:21:00,51.5,46.4,29.68,North,0,0.0,0.0,83,0.00,,,0.00,WUHU216HW,2013-04-26 18:21:00,
2013-04-26 11:22:00,51.5,46.4,29.68,North,0,0.0,0.0,83,0.00,,,0.00,WUHU216HW,2013-04-26 18:22:00,
2013-04-26 11:24:00,51.7,46.4,29.68,North,0,0.0,0.0,82,0.00,,,0.00,WUHU216HW,2013-04-26 18:24:00,
2013-04-26 11:25:00,51.7,46.4,29.68,North,0,0.0,0.0,82,0.00,,,0.00,WUHU216HW,2013-04-26 18:25:00,
2013-04-26 11:27:00,51.7,46.4,29.68,North,0,0.0,0.0,82,0.00,,,0.00,WUHU216HW,2013-04-26 18:27:00,
2013-04-26 11:29:00,51.8,46.5,29.68,North,0,0.0,0.0,82,0.00,,,0.00,WUHU216HW,2013-04-26 18:29:00,
2013-04-26 11:30:00,52.0,46.7,29.68,North,0,0.0,0.0,82,0.00,,,0.00,WUHU216HW,2013-04-26 18:30:00,
2013-04-26 11:32:00,52.2,46.9,29.68,North,0,0.0,0.0,82,0.00,,,0.00,WUHU216HW,2013-04-26 18:32:00,
2013-04-26 11:34:00,52.2,46.9,29.68,North,0,0.0,0.0,82,0.00,,,0.00,WUHU216HW,2013-04-26 18:34:00,
2013-04-26 11:35:00,52.6,47.3,29.68,North,0,0.0,0.0,82,0.00,,,0.00,WUHU216HW,2013-04-26 18:35:00,
2013-04-26 11:37:00,52.7,47.1,29.68,North,0,0.0,0.0,81,0.00,,,0.00,WUHU216HW,2013-04-26 18:37:00,
2013-04-26 11:39:00,52.6,46.9,29.68,North,0,0.0,0.0,81,0.00,,,0.00,WUHU216HW,2013-04-26 18:39:00,
2013-04-26 11:40:00,52.6,46.9,29.68,North,0,0.0,0.0,81,0.00,,,0.00,WUHU216HW,2013-04-26 18:40:00,
2013-04-26 11:42:00,52.6,46.9,29.68,North,0,0.0,0.0,81,0.00,,,0.00,WUHU216HW,2013-04-26 18:42:00,
2013-04-26 11:44:00,52.6,46.6,29.68,North,0,0.0,0.0,80,0.00,,,0.00,WUHU216HW,2013-04-26 18:44:00,
2013-04-26 11:46:00,52.2,46.3,29.68,North,0,0.0,0.0,80,0.00,,,0.00,WUHU216HW,2013-04-26 18:46:00,
2013-04-26 11:47:00,52.2,46.3,29.68,North,0,0.0,0.0,80,0.00,,,0.00,WUHU216HW,2013-04-26 18:47:00,
2013-04-26 11:50:00,51.8,46.2,29.68,North,0,0.0,0.0,81,0.00,,,0.00,WUHU216HW,2013-04-26 18:50:00,
2013-04-26 11:51:00,51.8,46.2,29.68,North,0,0.0,0.0,81,0.00,,,0.00,WUHU216HW,2013-04-26 18:51:00,
2013-04-26 11:52:00,51.8,46.5,29.68,North,0,0.0,0.0,82,0.00,,,0.00,WUHU216HW,2013-04-26 18:52:00,
2013-04-26 11:55:00,51.7,46.4,29.68,North,0,0.0,0.0,82,0.00,,,0.00,WUHU216HW,2013-04-26 18:55:00,
2013-04-26 11:56:00,51.7,46.4,29.68,North,0,0.0,0.0,82,0.00,,,0.00,WUHU216HW,2013-04-26 18:56:00,
2013-04-26 11:58:00,51.8,46.5,29.67,North,0,0.0,0.0,82,0.00,,,0.00,WUHU216HW,2013-04-26 18:58:00,
2013-04-26 12:00:00,52.0,46.7,29.67,North,0,0.0,0.0,82,0.00,,,0.00,WUHU216HW,2013-04-26 19:00:00,
2013-04-26 12:01:00,52.2,46.9,29.68,North,0,0.0,0.0,82,0.00,,,0.00,WUHU216HW,2013-04-26 19:01:00,
2013-04-26 12:03:00,52.4,47.1,29.68,North,0,0.0,0.0,82,0.00,,,0.00,WUHU216HW,2013-04-26 19:03:00,
2013-04-26 12:04:00,52.6,47.3,29.68,North,0,0.0,0.0,82,0.00,,,0.00,WUHU216HW,2013-04-26 19:04:00,
2013-04-26 12:05:00,52.7,47.1,29.68,North,0,0.0,0.0,81,0.00,,,0.00,WUHU216HW,2013-04-26 19:05:00,
2013-04-26 12:06:00,52.6,46.6,29.68,North,0,0.0,0.0,80,0.00,,,0.00,WUHU216HW,2013-04-26 19:06:00,
2013-04-26 12:07:00,52.7,46.8,29.68,North,0,0.0,0.0,80,0.00,,,0.00,WUHU216HW,2013-04-26 19:07:00,
2013-04-26 12:08:00,52.9,47.0,29.67,North,0,0.0,0.0,80,0.00,,,0.00,WUHU216HW,2013-04-26 19:08:00,
2013-04-26 12:09:00,52.9,47.0,29.67,North,0,0.0,0.0,80,0.00,,,0.00,WUHU216HW,2013-04-26 19:09:00,
2013-04-26 12:10:00,53.1,47.2,29.67,North,0,0.0,0.0,80,0.00,,,0.00,WUHU216HW,2013-04-26 19:10:00,
2013-04-26 12:11:00,53.3,47.3,29.67,North,0,0.0,0.0,80,0.00,,,0.00,WUHU216HW,2013-04-26 19:11:00,
2013-04-26 12:12:00,53.3,47.3,29.67,North,0,0.0,0.0,80,0.00,,,0.00,WUHU216HW,2013-04-26 19:12:00,
2013-04-26 12:13:00,53.3,47.3,29.67,North,0,0.0,0.0,80,0.00,,,0.00,WUHU216HW,2013-04-26 19:13:00,
2013-04-26 12:15:00,53.6,47.7,29.67,North,0,0.0,0.0,80,0.00,,,0.00,WUHU216HW,2013-04-26 19:15:00,
2013-04-26 12:17:00,54.2,48.2,29.67,North,0,0.0,0.0,80,0.00,,,0.00,WUHU216HW,2013-04-26 19:17:00,
2013-04-26 12:18:00,54.4,48.3,29.67,North,0,0.0,0.0,80,0.00,,,0.00,WUHU216HW,2013-04-26 19:18:00,
2013-04-26 12:20:00,54.7,48.7,29.67,North,0,0.0,0.0,80,0.00,,,0.00,WUHU216HW,2013-04-26 19:20:00,
2013-04-26 12:22:00,55.1,48.7,29.68,North,0,0.0,0.0,79,0.00,,,0.00,WUHU216HW,2013-04-26 19:22:00,
2013-04-26 12:23:00,55.1,48.3,29.68,North,0,0.0,0.0,78,0.00,,,0.00,WUHU216HW,2013-04-26 19:23:00,
2013-04-26 12:25:00,55.3,48.5,29.68,North,0,0.0,0.0,78,0.00,,,0.00,WUHU216HW,2013-04-26 19:25:00,
2013-04-26 12:27:00,55.1,48.0,29.68,North,0,0.0,0.0,77,0.00,,,0.00,WUHU216HW,2013-04-26 19:27:00,
2013-04-26 12:28:00,54.9,48.2,29.68,North,0,0.0,0.0,78,0.00,,,0.00,WUHU216HW,2013-04-26 19:28:00,
2013-04-26 12:30:00,55.1,48.3,29.68,North,0,0.0,0.0,78,0.00,,,0.00,WUHU216HW,2013-04-26 19:30:00,
2013-04-26 12:33:00,55.4,48.6,29.68,North,0,0.0,0.0,78,0.00,,,0.00,WUHU216HW,2013-04-26 19:33:00,
2013-04-26 12:35:00,55.8,49.3,29.67,North,0,0.0,0.0,79,0.00,,,0.00,WUHU216HW,2013-04-26 19:35:00,
2013-04-26 12:38:00,56.5,49.7,29.68,North,0,0.0,0.0,78,0.00,,,0.00,WUHU216HW,2013-04-26 19:38:00,
2013-04-26 12:39:00,56.7,49.9,29.67,North,0,0.0,0.0,78,0.00,,,0.00,WUHU216HW,2013-04-26 19:39:00,
2013-04-26 12:40:00,56.9,50.4,29.67,North,0,0.0,0.0,79,0.00,,,0.00,WUHU216HW,2013-04-26 19:40:00,
2013-04-26 12:41:00,57.2,50.0,29.67,North,0,0.0,0.0,77,0.00,,,0.00,WUHU216HW,2013-04-26 19:41:00,
2013-04-26 12:43:00,57.4,49.9,29.67,North,0,0.0,0.0,76,0.00,,,0.00,WUHU216HW,2013-04-26 19:43:00,
2013-04-26 12:44:00,57.6,49.7,29.67,North,0,0.0,0.0,75,0.00,,,0.00,WUHU216HW,2013-04-26 19:44:00,
2013-04-26 12:45:00,57.6,49.7,29.67,North,0,0.0,0.0,75,0.00,,,0.00,WUHU216HW,2013-04-26 19:45:00,
2013-04-26 12:46:00,57.6,49.3,29.67,North,0,0.0,0.0,74,0.00,,,0.00,WUHU216HW,2013-04-26 19:46:00,
2013-04-26 12:48:00,57.4,49.1,29.67,North,0,0.0,0.0,74,0.00,,,0.00,WUHU216HW,2013-04-26 19:48:00,
2013-04-26 12:49:00,57.4,49.5,29.67,North,0,0.0,0.0,75,0.00,,,0.00,WUHU216HW,2013-04-26 19:49:00,
2013-04-26 12:50:00,57.4,49.5,29.67,North,0,0.0,0.0,75,0.00,,,0.00,WUHU216HW,2013-04-26 19:50:00,
2013-04-26 12:51:00,57.6,49.7,29.67,North,0,0.0,0.0,75,0.00,,,0.00,WUHU216HW,2013-04-26 19:51:00,
2013-04-26 12:53:00,58.0,49.7,29.67,North,0,0.0,0.0,74,0.00,,,0.00,WUHU216HW,2013-04-26 19:53:00,
2013-04-26 12:54:00,58.0,49.7,29.67,North,0,0.0,0.0,74,0.00,,,0.00,WUHU216HW,2013-04-26 19:54:00,
2013-04-26 12:55:00,58.0,49.7,29.67,North,0,0.0,0.0,74,0.00,,,0.00,WUHU216HW,2013-04-26 19:55:00,
2013-04-26 12:56:00,58.0,49.7,29.67,North,0,0.0,0.0,74,0.00,,,0.00,WUHU216HW,2013-04-26 19:56:00,
2013-04-26 12:58:00,58.0,49.7,29.67,North,0,0.0,0.0,74,0.00,,,0.00,WUHU216HW,2013-04-26 19:58:00,
2013-04-26 12:59:00,58.0,49.7,29.67,North,0,0.0,0.0,74,0.00,,,0.00,WUHU216HW,2013-04-26 19:59:00,
2013-04-26 13:00:00,58.0,49.7,29.67,North,0,0.0,0.0,74,0.00,,,0.00,WUHU216HW,2013-04-26 20:00:00,
2013-04-26 13:02:00,58.0,49.7,29.67,North,0,0.0,0.0,74,0.00,,,0.00,WUHU216HW,2013-04-26 20:02:00,
2013-04-26 13:04:00,58.7,50.0,29.68,North,0,0.0,0.0,73,0.00,,,0.00,WUHU216HW,2013-04-26 20:04:00,
2013-04-26 13:05:00,58.7,49.7,29.67,North,0,0.0,0.0,72,0.00,,,0.00,WUHU216HW,2013-04-26 20:05:00,
2013-04-26 13:07:00,58.7,50.0,29.67,North,0,0.0,0.0,73,0.00,,,0.00,WUHU216HW,2013-04-26 20:07:00,
2013-04-26 13:09:00,59.0,50.0,29.67,North,0,0.0,0.0,72,0.00,,,0.00,WUHU216HW,2013-04-26 20:09:00,
2013-04-26 13:10:00,59.0,49.7,29.67,North,0,0.0,0.0,71,0.00,,,0.00,WUHU216HW,2013-04-26 20:10:00,
2013-04-26 13:12:00,59.2,50.6,29.67,North,0,0.0,0.0,73,0.00,,,0.00,WUHU216HW,2013-04-26 20:12:00,
2013-04-26 13:14:00,59.8,51.1,29.67,North,0,0.0,0.0,73,0.00,,,0.00,WUHU216HW,2013-04-26 20:14:00,
2013-04-26 13:16:00,59.8,50.8,29.67,North,0,0.0,0.0,72,0.00,,,0.00,WUHU216HW,2013-04-26 20:16:00,
2013-04-26 13:17:00,60.1,51.5,29.67,North,0,0.0,0.0,73,0.00,,,0.00,WUHU216HW,2013-04-26 20:17:00,
2013-04-26 13:19:00,60.7,52.0,29.67,North,0,0.0,0.0,73,0.00,,,0.00,WUHU216HW,2013-04-26 20:19:00,
2013-04-26 13:21:00,61.0,51.7,29.67,North,0,0.0,0.0,71,0.00,,,0.00,WUHU216HW,2013-04-26 20:21:00,
2013-04-26 13:22:00,60.8,51.1,29.67,North,0,0.0,0.0,70,0.00,,,0.00,WUHU216HW,2013-04-26 20:22:00,
2013-04-26 13:24:00,60.8,51.1,29.67,North,0,0.0,0.0,70,0.00,,,0.00,WUHU216HW,2013-04-26 20:24:00,
2013-04-26 13:26:00,60.8,50.3,29.67,North,0,0.0,0.0,68,0.00,,,0.00,WUHU216HW,2013-04-26 20:26:00,
2013-04-26 13:27:00,60.7,50.5,29.67,North,0,0.0,0.0,69,0.00,,,0.00,WUHU216HW,2013-04-26 20:27:00,
2013-04-26 13:28:00,60.7,50.5,29.67,North,0,0.0,0.0,69,0.00,,,0.00,WUHU216HW,2013-04-26 20:28:00,
2013-04-26 13:29:00,60.7,50.5,29.67,North,0,0.0,0.0,69,0.00,,,0.00,WUHU216HW,2013-04-26 20:29:00,
2013-04-26 13:31:00,60.7,50.5,29.67,North,0,0.0,0.0,69,0.00,,,0.00,WUHU216HW,2013-04-26 20:31:00,
2013-04-26 13:33:00,60.8,50.7,29.67,North,0,0.0,0.0,69,0.00,,,0.00,WUHU216HW,2013-04-26 20:33:00,
2013-04-26 13:34:00,60.8,50.3,29.67,North,0,0.0,0.0,68,0.00,,,0.00,WUHU216HW,2013-04-26 20:34:00,
2013-04-26 13:35:00,60.8,50.3,29.67,North,0,0.0,0.0,68,0.00,,,0.00,WUHU216HW,2013-04-26 20:35:00,
2013-04-26 13:37:00,60.8,50.3,29.67,North,0,0.0,0.0,68,0.00,,,0.00,WUHU216HW,2013-04-26 20:37:00,
2013-04-26 13:38:00,60.7,49.7,29.67,North,0,0.0,0.0,67,0.00,,,0.00,WUHU216HW,2013-04-26 20:38:00,
2013-04-26 13:39:00,60.7,49.7,29.67,North,0,0.0,0.0,67,0.00,,,0.00,WUHU216HW,2013-04-26 20:39:00,
2013-04-26 13:40:00,60.7,49.7,29.67,North,0,0.0,0.0,67,0.00,,,0.00,WUHU216HW,2013-04-26 20:40:00,
2013-04-26 13:42:00,60.8,49.5,29.67,North,0,0.0,0.0,66,0.00,,,0.00,WUHU216HW,2013-04-26 20:42:00,
2013-04-26 13:43:00,60.8,49.9,29.67,North,0,0.0,0.0,67,0.00,,,0.00,WUHU216HW,2013-04-26 20:43:00,
2013-04-26 13:44:00,60.8,49.9,29.67,North,0,0.0,0.0,67,0.00,,,0.00,WUHU216HW,2013-04-26 20:44:00,
2013-04-26 13:45:00,60.8,49.9,29.67,North,0,0.0,0.0,67,0.00,,,0.00,WUHU216HW,2013-04-26 20:45:00,
2013-04-26 13:48:00,61.0,50.0,29.67,North,0,0.0,0.0,67,0.00,,,0.00,WUHU216HW,2013-04-26 20:48:00,
2013-04-26 13:50:00,61.6,51.4,29.67,North,0,0.0,0.0,69,0.00,,,0.00,WUHU216HW,2013-04-26 20:50:00,
2013-04-26 13:53:00,62.1,51.0,29.67,North,0,0.0,0.0,67,0.00,,,0.00,WUHU216HW,2013-04-26 20:53:00,
2013-04-26 13:55:00,62.5,51.8,29.67,North,0,0.0,0.0,68,0.00,,,0.00,WUHU216HW,2013-04-26 20:55:00,
2013-04-26 13:58:00,63.0,51.4,29.67,North,0,0.0,0.0,66,0.00,,,0.00,WUHU216HW,2013-04-26 20:58:00,
2013-04-26 13:59:00,63.0,51.4,29.67,North,0,0.0,0.0,66,0.00,,,0.00,WUHU216HW,2013-04-26 20:59:00,
2013-04-26 14:01:00,63.7,52.1,29.67,North,0,0.0,0.0,66,0.00,,,0.00,WUHU216HW,2013-04-26 21:01:00,
2013-04-26 14:03:00,64.1,51.6,29.67,North,0,0.0,0.0,64,0.00,,,0.00,WUHU216HW,2013-04-26 21:03:00,
2013-04-26 14:04:00,64.1,51.6,29.67,North,0,0.0,0.0,64,0.00,,,0.00,WUHU216HW,2013-04-26 21:04:00,
2013-04-26 14:06:00,64.1,51.6,29.67,North,0,0.0,0.0,64,0.00,,,0.00,WUHU216HW,2013-04-26 21:06:00,
2013-04-26 14:09:00,64.4,51.9,29.67,North,0,0.0,0.0,64,0.00,,,0.00,WUHU216HW,2013-04-26 21:09:00,
2013-04-26 14:11:00,64.6,51.7,29.67,North,0,0.0,0.0,63,0.00,,,0.00,WUHU216HW,2013-04-26 21:11:00,
2013-04-26 14:12:00,64.4,50.2,29.67,North,0,0.0,0.0,60,0.00,,,0.00,WUHU216HW,2013-04-26 21:12:00,
2013-04-26 14:14:00,64.1,50.3,29.67,North,0,0.0,0.0,61,0.00,,,0.00,WUHU216HW,2013-04-26 21:14:00,
2013-04-26 14:16:00,63.9,51.0,29.67,North,0,0.0,0.0,63,0.00,,,0.00,WUHU216HW,2013-04-26 21:16:00,
2013-04-26 14:17:00,63.9,49.8,29.67,North,0,0.0,0.0,60,0.00,,,0.00,WUHU216HW,2013-04-26 21:17:00,
2013-04-26 14:19:00,63.7,50.4,29.67,North,0,0.0,0.0,62,0.00,,,0.00,WUHU216HW,2013-04-26 21:19:00,
2013-04-26 14:21:00,64.1,50.8,29.67,North,0,0.0,0.0,62,0.00,,,0.00,WUHU216HW,2013-04-26 21:21:00,
2013-04-26 14:22:00,64.1,50.8,29.67,North,0,0.0,0.0,62,0.00,,,0.00,WUHU216HW,2013-04-26 21:22:00,
2013-04-26 14:24:00,64.1,50.3,29.67,North,0,0.0,0.0,61,0.00,,,0.00,WUHU216HW,2013-04-26 21:24:00,
2013-04-26 14:26:00,64.1,50.3,29.67,North,0,0.0,0.0,61,0.00,,,0.00,WUHU216HW,2013-04-26 21:26:00,
2013-04-26 14:28:00,64.1,50.8,29.67,North,0,0.0,0.0,62,0.00,,,0.00,WUHU216HW,2013-04-26 21:28:00,
2013-04-26 14:29:00,63.9,49.8,29.67,North,0,0.0,0.0,60,0.00,,,0.00,WUHU216HW,2013-04-26 21:29:00,
2013-04-26 14:30:00,63.9,49.8,29.67,North,0,0.0,0.0,60,0.00,,,0.00,WUHU216HW,2013-04-26 21:30:00,
2013-04-26 14:32:00,63.7,49.1,29.67,North,0,0.0,0.0,59,0.00,,,0.00,WUHU216HW,2013-04-26 21:32:00,
2013-04-26 14:33:00,63.5,49.4,29.67,North,0,0.0,0.0,60,0.00,,,0.00,WUHU216HW,2013-04-26 21:33:00,
2013-04-26 14:35:00,63.5,48.4,29.67,North,0,0.0,0.0,58,0.00,,,0.00,WUHU216HW,2013-04-26 21:35:00,
2013-04-26 14:37:00,63.4,48.2,29.67,North,0,0.0,0.0,58,0.00,,,0.00,WUHU216HW,2013-04-26 21:37:00,
2013-04-26 14:38:00,63.4,48.2,29.67,North,0,0.0,0.0,58,0.00,,,0.00,WUHU216HW,2013-04-26 21:38:00,
2013-04-26 14:40:00,63.4,48.2,29.67,North,0,0.0,0.0,58,0.00,,,0.00,WUHU216HW,2013-04-26 21:40:00,
2013-04-26 14:41:00,63.2,47.6,29.67,North,0,0.0,0.0,57,0.00,,,0.00,WUHU216HW,2013-04-26 21:41:00,
2013-04-26 14:42:00,63.2,47.2,29.67,North,0,0.0,0.0,56,0.00,,,0.00,WUHU216HW,2013-04-26 21:42:00,
2013-04-26 14:43:00,63.4,47.4,29.67,North,0,0.0,0.0,56,0.00,,,0.00,WUHU216HW,2013-04-26 21:43:00,
2013-04-26 14:45:00,63.2,47.2,29.67,North,0,0.0,0.0,56,0.00,,,0.00,WUHU216HW,2013-04-26 21:45:00,
2013-04-26 14:46:00,63.2,47.2,29.67,North,0,0.0,0.0,56,0.00,,,0.00,WUHU216HW,2013-04-26 21:46:00,
2013-04-26 14:47:00,63.0,47.0,29.67,North,0,0.0,0.0,56,0.00,,,0.00,WUHU216HW,2013-04-26 21:47:00,
2013-04-26 14:48:00,63.0,47.0,29.67,North,0,0.0,0.0,56,0.00,,,0.00,WUHU216HW,2013-04-26 21:48:00,
2013-04-26 14:50:00,62.8,46.4,29.67,North,0,0.0,0.0,55,0.00,,,0.00,WUHU216HW,2013-04-26 21:50:00,
2013-04-26 14:51:00,62.8,46.4,29.67,North,0,0.0,0.0,55,0.00,,,0.00,WUHU216HW,2013-04-26 21:51:00,
2013-04-26 14:52:00,62.6,46.2,29.67,North,0,0.0,0.0,55,0.00,,,0.00,WUHU216HW,2013-04-26 21:52:00,
2013-04-26 14:53:00,62.5,45.6,29.67,North,0,0.0,0.0,54,0.00,,,0.00,WUHU216HW,2013-04-26 21:53:00,
2013-04-26 14:55:00,62.3,45.8,29.67,North,0,0.0,0.0,55,0.00,,,0.00,WUHU216HW,2013-04-26 21:55:00,
2013-04-26 14:56:00,62.3,45.4,29.67,North,0,0.0,0.0,54,0.00,,,0.00,WUHU216HW,2013-04-26 21:56:00,
2013-04-26 14:58:00,62.3,45.8,29.67,North,0,0.0,0.0,55,0.00,,,0.00,WUHU216HW,2013-04-26 21:58:00,
2013-04-26 14:59:00,62.3,45.8,29.67,North,0,0.0,0.0,55,0.00,,,0.00,WUHU216HW,2013-04-26 21:59:00,
2013-04-26 15:00:00,62.5,47.0,29.67,North,0,0.0,0.0,57,0.00,,,0.00,WUHU216HW,2013-04-26 22:00:00,
2013-04-26 15:02:00,63.0,47.0,29.66,North,0,0.0,0.0,56,0.00,,,0.00,WUHU216HW,2013-04-26 22:02:00,
2013-04-26 15:03:00,63.0,47.4,29.66,North,0,0.0,0.0,57,0.00,,,0.00,WUHU216HW,2013-04-26 22:03:00,
2013-04-26 15:04:00,63.0,47.4,29.67,North,0,0.0,0.0,57,0.00,,,0.00,WUHU216HW,2013-04-26 22:04:00,
2013-04-26 15:05:00,63.7,47.6,29.67,North,0,0.0,0.0,56,0.00,,,0.00,WUHU216HW,2013-04-26 22:05:00,
2013-04-26 15:07:00,64.3,48.6,29.66,North,0,0.0,0.0,57,0.00,,,0.00,WUHU216HW,2013-04-26 22:07:00,
2013-04-26 15:08:00,64.3,48.6,29.66,North,0,0.0,0.0,57,0.00,,,0.00,WUHU216HW,2013-04-26 22:08:00,
2013-04-26 15:09:00,64.6,48.0,29.67,North,0,0.0,0.0,55,0.00,,,0.00,WUHU216HW,2013-04-26 22:09:00,
2013-04-26 15:10:00,64.6,47.5,29.66,North,0,0.0,0.0,54,0.00,,,0.00,WUHU216HW,2013-04-26 22:10:00,
2013-04-26 15:11:00,64.6,47.5,29.66,North,0,0.0,0.0,54,0.00,,,0.00,WUHU216HW,2013-04-26 22:11:00,
2013-04-26 15:12:00,64.4,46.8,29.66,North,0,0.0,0.0,53,0.00,,,0.00,WUHU216HW,2013-04-26 22:12:00,
2013-04-26 15:13:00,64.4,46.8,29.66,North,0,0.0,0.0,53,0.00,,,0.00,WUHU216HW,2013-04-26 22:13:00,
2013-04-26 15:14:00,64.4,46.8,29.66,North,0,0.0,0.0,53,0.00,,,0.00,WUHU216HW,2013-04-26 22:14:00,
2013-04-26 15:15:00,64.4,47.8,29.66,North,0,0.0,0.0,55,0.00,,,0.00,WUHU216HW,2013-04-26 22:15:00,
2013-04-26 15:16:00,64.4,47.8,29.66,North,0,0.0,0.0,55,0.00,,,0.00,WUHU216HW,2013-04-26 22:16:00,
2013-04-26 15:17:00,64.4,46.4,29.66,North,0,0.0,0.0,52,0.00,,,0.00,WUHU216HW,2013-04-26 22:17:00,
2013-04-26 15:18:00,64.3,46.6,29.66,North,0,0.0,0.0,53,0.00,,,0.00,WUHU216HW,2013-04-26 22:18:00,
2013-04-26 15:19:00,64.3,46.6,29.66,North,0,0.0,0.0,53,0.00,,,0.00,WUHU216HW,2013-04-26 22:19:00,
2013-04-26 15:21:00,63.9,46.4,29.66,North,0,0.0,0.0,53,0.00,,,0.00,WUHU216HW,2013-04-26 22:21:00,
2013-04-26 15:22:00,63.9,47.4,29.66,North,0,0.0,0.0,55,0.00,,,0.00,WUHU216HW,2013-04-26 22:22:00,
2013-04-26 15:24:00,63.9,47.4,29.66,North,0,0.0,0.0,55,0.00,,,0.00,WUHU216HW,2013-04-26 22:24:00,
2013-04-26 15:25:00,63.9,47.4,29.66,North,0,0.0,0.0,55,0.00,,,0.00,WUHU216HW,2013-04-26 22:25:00,
2013-04-26 15:26:00,63.9,46.4,29.65,North,0,0.0,0.0,53,0.00,,,0.00,WUHU216HW,2013-04-26 22:26:00,
2013-04-26 15:27:00,63.9,47.4,29.65,North,0,0.0,0.0,55,0.00,,,0.00,WUHU216HW,2013-04-26 22:27:00,
2013-04-26 15:29:00,64.1,48.0,29.65,North,0,0.0,0.0,56,0.00,,,0.00,WUHU216HW,2013-04-26 22:29:00,
2013-04-26 15:30:00,64.3,48.6,29.65,North,0,0.0,0.0,57,0.00,,,0.00,WUHU216HW,2013-04-26 22:30:00,
2013-04-26 15:31:00,64.3,48.2,29.65,North,0,0.0,0.0,56,0.00,,,0.00,WUHU216HW,2013-04-26 22:31:00,
2013-04-26 15:32:00,64.3,47.6,29.65,North,0,0.0,0.0,55,0.00,,,0.00,WUHU216HW,2013-04-26 22:32:00,
2013-04-26 15:33:00,64.3,47.6,29.65,North,0,0.0,0.0,55,0.00,,,0.00,WUHU216HW,2013-04-26 22:33:00,
2013-04-26 15:34:00,64.1,47.4,29.65,North,0,0.0,0.0,55,0.00,,,0.00,WUHU216HW,2013-04-26 22:34:00,
2013-04-26 15:35:00,64.3,47.6,29.65,North,0,0.0,0.0,55,0.00,,,0.00,WUHU216HW,2013-04-26 22:35:00,
2013-04-26 15:36:00,64.1,48.0,29.65,North,0,0.0,0.0,56,0.00,,,0.00,WUHU216HW,2013-04-26 22:36:00,
2013-04-26 15:37:00,64.3,47.2,29.65,North,0,0.0,0.0,54,0.00,,,0.00,WUHU216HW,2013-04-26 22:37:00,
2013-04-26 15:38:00,64.3,47.2,29.65,North,0,0.0,0.0,54,0.00,,,0.00,WUHU216HW,2013-04-26 22:38:00,
2013-04-26 15:39:00,64.3,47.6,29.65,North,0,0.0,0.0,55,0.00,,,0.00,WUHU216HW,2013-04-26 22:39:00,
2013-04-26 15:40:00,64.4,48.8,29.65,North,0,0.0,0.0,57,0.00,,,0.00,WUHU216HW,2013-04-26 22:40:00,
2013-04-26 15:41:00,64.4,47.8,29.65,North,0,0.0,0.0,55,0.00,,,0.00,WUHU216HW,2013-04-26 22:41:00,
2013-04-26 15:42:00,64.6,48.0,29.65,North,0,0.0,0.0,55,0.00,,,0.00,WUHU216HW,2013-04-26 22:42:00,
2013-04-26 15:44:00,64.6,48.0,29.65,North,0,0.0,0.0,55,0.00,,,0.00,WUHU216HW,2013-04-26 22:44:00,
2013-04-26 15:45:00,64.8,48.6,29.65,North,0,0.0,0.0,56,0.00,,,0.00,WUHU216HW,2013-04-26 22:45:00,
2013-04-26 15:47:00,65.2,49.0,29.65,North,0,0.0,0.0,56,0.00,,,0.00,WUHU216HW,2013-04-26 22:47:00,
2013-04-26 15:49:00,65.5,49.3,29.64,North,0,0.0,0.0,56,0.00,,,0.00,WUHU216HW,2013-04-26 22:49:00,
2013-04-26 15:50:00,65.7,49.5,29.64,North,0,0.0,0.0,56,0.00,,,0.00,WUHU216HW,2013-04-26 22:50:00,
2013-04-26 15:52:00,66.2,49.6,29.64,North,0,0.0,0.0,55,0.00,,,0.00,WUHU216HW,2013-04-26 22:52:00,
2013-04-26 15:54:00,66.6,50.4,29.64,North,0,0.0,0.0,56,0.00,,,0.00,WUHU216HW,2013-04-26 22:54:00,
2013-04-26 15:55:00,66.6,48.4,29.64,North,0,0.0,0.0,52,0.00,,,0.00,WUHU216HW,2013-04-26 22:55:00,
2013-04-26 15:57:00,66.6,48.4,29.64,North,0,0.0,0.0,52,0.00,,,0.00,WUHU216HW,2013-04-26 22:57:00,
2013-04-26 15:58:00,66.6,48.4,29.64,North,0,0.0,0.0,52,0.00,,,0.00,WUHU216HW,2013-04-26 22:58:00,
2013-04-26 15:59:00,66.8,49.2,29.64,North,0,0.0,0.0,53,0.00,,,0.00,WUHU216HW,2013-04-26 22:59:00,
2013-04-26 16:00:00,67.0,47.3,29.64,North,0,0.0,0.0,49,0.00,,,0.00,WUHU216HW,2013-04-26 23:00:00,
2013-04-26 16:03:00,67.1,48.4,29.64,North,0,0.0,0.0,51,0.00,,,0.00,WUHU216HW,2013-04-26 23:03:00,
2013-04-26 16:04:00,67.3,49.2,29.64,North,0,0.0,0.0,52,0.00,,,0.00,WUHU216HW,2013-04-26 23:04:00,
2013-04-26 16:06:00,67.7,49.4,29.64,North,0,0.0,0.0,52,0.00,,,0.00,WUHU216HW,2013-04-26 23:06:00,
2013-04-26 16:08:00,67.9,49.6,29.64,North,0,0.0,0.0,52,0.00,,,0.00,WUHU216HW,2013-04-26 23:08:00,
2013-04-26 16:09:00,68.0,49.8,29.64,North,0,0.0,0.0,52,0.00,,,0.00,WUHU216HW,2013-04-26 23:09:00,
2013-04-26 16:11:00,68.2,49.0,29.64,North,0,0.0,0.0,50,0.00,,,0.00,WUHU216HW,2013-04-26 23:11:00,
2013-04-26 16:13:00,68.0,48.8,29.64,North,0,0.0,0.0,50,0.00,,,0.00,WUHU216HW,2013-04-26 23:13:00,
2013-04-26 16:14:00,68.0,48.8,29.64,North,0,0.0,0.0,50,0.00,,,0.00,WUHU216HW,2013-04-26 23:14:00,
2013-04-26 16:15:00,67.7,47.9,29.64,North,0,0.0,0.0,49,0.00,,,0.00,WUHU216HW,2013-04-26 23:15:00,
2013-04-26 16:16:00,67.5,48.3,29.64,North,0,0.0,0.0,50,0.00,,,0.00,WUHU216HW,2013-04-26 23:16:00,
2013-04-26 16:18:00,67.3,48.2,29.64,North,0,0.0,0.0,50,0.00,,,0.00,WUHU216HW,2013-04-26 23:18:00,
2013-04-26 16:19:00,67.0,48.3,29.63,North,0,0.0,0.0,51,0.00,,,0.00,WUHU216HW,2013-04-26 23:19:00,
2013-04-26 16:21:00,67.1,48.4,29.64,North,0,0.0,0.0,51,0.00,,,0.00,WUHU216HW,2013-04-26 23:21:00,
2013-04-26 16:23:00,67.3,48.6,29.64,North,0,0.0,0.0,51,0.00,,,0.00,WUHU216HW,2013-04-26 23:23:00,
2013-04-26 16:24:00,67.3,48.2,29.64,North,0,0.0,0.0,50,0.00,,,0.00,WUHU216HW,2013-04-26 23:24:00,
2013-04-26 16:25:00,67.3,48.2,29.64,North,0,0.0,0.0,50,0.00,,,0.00,WUHU216HW,2013-04-26 23:25:00,
2013-04-26 16:26:00,67.0,48.3,29.64,North,0,0.0,0.0,51,0.00,,,0.00,WUHU216HW,2013-04-26 23:26:00,
2013-04-26 16:28:00,66.6,48.0,29.63,North,0,0.0,0.0,51,0.00,,,0.00,WUHU216HW,2013-04-26 23:28:00,
2013-04-26 16:30:00,66.6,48.0,29.63,North,0,0.0,0.0,51,0.00,,,0.00,WUHU216HW,2013-04-26 23:30:00,
2013-04-26 16:31:00,66.1,47.4,29.63,North,0,0.0,0.0,51,0.00,,,0.00,WUHU216HW,2013-04-26 23:31:00,
2013-04-26 16:32:00,66.1,47.4,29.63,North,0,0.0,0.0,51,0.00,,,0.00,WUHU216HW,2013-04-26 23:32:00,
2013-04-26 16:34:00,65.9,47.8,29.63,North,0,0.0,0.0,52,0.00,,,0.00,WUHU216HW,2013-04-26 23:34:00,
2013-04-26 16:35:00,65.9,48.2,29.63,North,0,0.0,0.0,53,0.00,,,0.00,WUHU216HW,2013-04-26 23:35:00,
2013-04-26 16:37:00,65.9,48.2,29.63,North,0,0.0,0.0,53,0.00,,,0.00,WUHU216HW,2013-04-26 23:37:00,
2013-04-26 16:39:00,65.9,48.2,29.63,North,0,0.0,0.0,53,0.00,,,0.00,WUHU216HW,2013-04-26 23:39:00,
2013-04-26 16:40:00,66.1,48.4,29.63,North,0,0.0,0.0,53,0.00,,,0.00,WUHU216HW,2013-04-26 23:40:00,
2013-04-26 16:42:00,65.9,47.8,29.63,North,0,0.0,0.0,52,0.00,,,0.00,WUHU216HW,2013-04-26 23:42:00,
2013-04-26 16:43:00,65.9,47.8,29.63,North,0,0.0,0.0,52,0.00,,,0.00,WUHU216HW,2013-04-26 23:43:00,
2013-04-26 16:44:00,65.9,47.3,29.63,North,0,0.0,0.0,51,0.00,,,0.00,WUHU216HW,2013-04-26 23:44:00,
2013-04-26 16:45:00,65.7,47.6,29.63,North,0,0.0,0.0,52,0.00,,,0.00,WUHU216HW,2013-04-26 23:45:00,
2013-04-26 16:47:00,65.7,47.6,29.63,North,0,0.0,0.0,52,0.00,,,0.00,WUHU216HW,2013-04-26 23:47:00,
2013-04-26 16:48:00,65.9,48.2,29.63,North,0,0.0,0.0,53,0.00,,,0.00,WUHU216HW,2013-04-26 23:48:00,
2013-04-26 16:49:00,65.9,48.2,29.63,North,0,0.0,0.0,53,0.00,,,0.00,WUHU216HW,2013-04-26 23:49:00,
2013-04-26 16:50:00,65.9,48.2,29.63,North,0,0.0,0.0,53,0.00,,,0.00,WUHU216HW,2013-04-26 23:50:00,
2013-04-26 16:51:00,66.6,49.0,29.63,North,0,0.0,0.0,53,0.00,,,0.00,WUHU216HW,2013-04-26 23:51:00,
2013-04-26 16:53:00,66.2,48.2,29.63,North,0,0.0,0.0,52,0.00,,,0.00,WUHU216HW,2013-04-26 23:53:00,
2013-04-26 16:54:00,67.3,49.2,29.62,North,0,0.0,0.0,52,0.00,,,0.00,WUHU216HW,2013-04-26 23:54:00,
2013-04-26 17:05:00,68.4,50.0,29.62,North,0,0.0,0.0,52,0.00,,,0.00,WUHU216HW,2013-04-27 00:05:00,
2013-04-26 17:06:00,67.5,49.2,29.62,North,0,0.0,0.0,52,0.00,,,0.00,WUHU216HW,2013-04-27 00:06:00,
2013-04-26 17:11:00,68.8,50.4,29.62,North,0,0.0,0.0,52,0.00,,,0.00,WUHU216HW,2013-04-27 00:11:00,
2013-04-26 17:12:00,68.6,49.8,29.62,North,0,0.0,0.0,51,0.00,,,0.00,WUHU216HW,2013-04-27 00:12:00,
2013-04-26 17:16:00,68.4,50.0,29.62,North,0,0.0,0.0,52,0.00,,,0.00,WUHU216HW,2013-04-27 00:16:00,
2013-04-26 17:17:00,68.4,50.0,29.62,North,0,0.0,0.0,52,0.00,,,0.00,WUHU216HW,2013-04-27 00:17:00,
2013-04-26 17:21:00,68.6,50.2,29.62,North,0,0.0,0.0,52,0.00,,,0.00,WUHU216HW,2013-04-27 00:21:00,
2013-04-26 17:22:00,68.8,50.4,29.61,North,0,0.0,0.0,52,0.00,,,0.00,WUHU216HW,2013-04-27 00:22:00,
2013-04-26 17:26:00,68.8,50.4,29.61,North,0,0.0,0.0,52,0.00,,,0.00,WUHU216HW,2013-04-27 00:26:00,
2013-04-26 17:27:00,68.8,50.4,29.61,North,0,0.0,0.0,52,0.00,,,0.00,WUHU216HW,2013-04-27 00:27:00,
2013-04-26 17:28:00,68.8,50.4,29.61,North,0,0.0,0.0,52,0.00,,,0.00,WUHU216HW,2013-04-27 00:28:00,
2013-04-26 17:31:00,68.8,50.4,29.61,North,0,0.0,0.0,52,0.00,,,0.00,WUHU216HW,2013-04-27 00:31:00,
2013-04-26 17:32:00,68.6,50.2,29.61,North,0,0.0,0.0,52,0.00,,,0.00,WUHU216HW,2013-04-27 00:32:00,
2013-04-26 17:33:00,68.6,50.2,29.61,North,0,0.0,0.0,52,0.00,,,0.00,WUHU216HW,2013-04-27 00:33:00,
2013-04-26 17:36:00,68.4,50.6,29.61,North,0,0.0,0.0,53,0.00,,,0.00,WUHU216HW,2013-04-27 00:36:00,
2013-04-26 17:37:00,68.4,50.6,29.61,North,0,0.0,0.0,53,0.00,,,0.00,WUHU216HW,2013-04-27 00:37:00,
2013-04-26 17:38:00,68.4,50.6,29.61,North,0,0.0,0.0,53,0.00,,,0.00,WUHU216HW,2013-04-27 00:38:00,
2013-04-26 17:39:00,68.4,50.6,29.61,North,0,0.0,0.0,53,0.00,,,0.00,WUHU216HW,2013-04-27 00:39:00,
2013-04-26 17:41:00,68.0,50.2,29.61,North,0,0.0,0.0,53,0.00,,,0.00,WUHU216HW,2013-04-27 00:41:00,
2013-04-26 17:42:00,68.0,50.2,29.61,North,0,0.0,0.0,53,0.00,,,0.00,WUHU216HW,2013-04-27 00:42:00,
2013-04-26 17:43:00,68.0,50.2,29.61,North,0,0.0,0.0,53,0.00,,,0.00,WUHU216HW,2013-04-27 00:43:00,
2013-04-26 17:44:00,68.0,49.8,29.61,North,0,0.0,0.0,52,0.00,,,0.00,WUHU216HW,2013-04-27 00:44:00,
2013-04-26 17:47:00,67.5,49.8,29.61,North,0,0.0,0.0,53,0.00,,,0.00,WUHU216HW,2013-04-27 00:47:00,
2013-04-26 17:48:00,67.3,49.6,29.61,North,0,0.0,0.0,53,0.00,,,0.00,WUHU216HW,2013-04-27 00:48:00,
2013-04-26 17:49:00,67.3,50.6,29.61,North,0,0.0,0.0,55,0.00,,,0.00,WUHU216HW,2013-04-27 00:49:00,
2013-04-26 17:52:00,67.0,50.2,29.61,North,0,0.0,0.0,55,0.00,,,0.00,WUHU216HW,2013-04-27 00:52:00,
2013-04-26 17:53:00,67.1,50.4,29.62,North,0,0.0,0.0,55,0.00,,,0.00,WUHU216HW,2013-04-27 00:53:00,
2013-04-26 17:54:00,67.0,50.2,29.62,North,0,0.0,0.0,55,0.00,,,0.00,WUHU216HW,2013-04-27 00:54:00,
2013-04-26 17:57:00,67.1,50.0,29.61,North,0,0.0,0.0,54,0.00,,,0.00,WUHU216HW,2013-04-27 00:57:00,
2013-04-26 17:58:00,67.0,49.2,29.61,North,0,0.0,0.0,53,0.00,,,0.00,WUHU216HW,2013-04-27 00:58:00,
2013-04-26 17:59:00,67.0,49.2,29.61,North,0,0.0,0.0,53,0.00,,,0.00,WUHU216HW,2013-04-27 00:59:00,
2013-04-26 18:02:00,66.4,47.4,29.61,North,0,0.0,0.0,50,0.00,,,0.00,WUHU216HW,2013-04-27 01:02:00,
2013-04-26 18:03:00,66.4,47.4,29.61,North,0,0.0,0.0,50,0.00,,,0.00,WUHU216HW,2013-04-27 01:03:00,
2013-04-26 18:04:00,66.2,47.6,29.61,North,0,0.0,0.0,51,0.00,,,0.00,WUHU216HW,2013-04-27 01:04:00,
2013-04-26 18:07:00,66.1,47.4,29.61,North,0,0.0,0.0,51,0.00,,,0.00,WUHU216HW,2013-04-27 01:07:00,
2013-04-26 18:08:00,66.1,48.0,29.61,North,0,0.0,0.0,52,0.00,,,0.00,WUHU216HW,2013-04-27 01:08:00,
2013-04-26 18:09:00,66.1,48.0,29.61,North,0,0.0,0.0,52,0.00,,,0.00,WUHU216HW,2013-04-27 01:09:00,
2013-04-26 18:10:00,66.2,47.6,29.61,North,0,0.0,0.0,51,0.00,,,0.00,WUHU216HW,2013-04-27 01:10:00,
2013-04-26 18:13:00,66.1,47.4,29.61,North,0,0.0,0.0,51,0.00,,,0.00,WUHU216HW,2013-04-27 01:13:00,
2013-04-26 18:14:00,66.1,47.4,29.61,North,0,0.0,0.0,51,0.00,,,0.00,WUHU216HW,2013-04-27 01:14:00,
2013-04-26 18:15:00,66.1,48.0,29.61,North,0,0.0,0.0,52,0.00,,,0.00,WUHU216HW,2013-04-27 01:15:00,
2013-04-26 18:18:00,65.9,47.3,29.61,North,0,0.0,0.0,51,0.00,,,0.00,WUHU216HW,2013-04-27 01:18:00,
2013-04-26 18:19:00,65.9,47.8,29.61,North,0,0.0,0.0,52,0.00,,,0.00,WUHU216HW,2013-04-27 01:19:00,
2013-04-26 18:20:00,65.9,47.8,29.61,North,0,0.0,0.0,52,0.00,,,0.00,WUHU216HW,2013-04-27 01:20:00,
2013-04-26 18:23:00,65.9,48.2,29.61,North,0,0.0,0.0,53,0.00,,,0.00,WUHU216HW,2013-04-27 01:23:00,
2013-04-26 18:24:00,65.9,48.2,29.61,North,0,0.0,0.0,53,0.00,,,0.00,WUHU216HW,2013-04-27 01:24:00,
2013-04-26 18:25:00,65.9,48.2,29.61,North,0,0.0,0.0,53,0.00,,,0.00,WUHU216HW,2013-04-27 01:25:00,
2013-04-26 18:28:00,65.9,48.2,29.61,North,0,0.0,0.0,53,0.00,,,0.00,WUHU216HW,2013-04-27 01:28:00,
2013-04-26 18:29:00,65.9,48.2,29.61,North,0,0.0,0.0,53,0.00,,,0.00,WUHU216HW,2013-04-27 01:29:00,
2013-04-26 18:30:00,65.9,48.2,29.61,North,0,0.0,0.0,53,0.00,,,0.00,WUHU216HW,2013-04-27 01:30:00,
2013-04-26 18:34:00,65.5,48.4,29.61,North,0,0.0,0.0,54,0.00,,,0.00,WUHU216HW,2013-04-27 01:34:00,
2013-04-26 18:35:00,65.5,48.9,29.61,North,0,0.0,0.0,55,0.00,,,0.00,WUHU216HW,2013-04-27 01:35:00,
2013-04-26 18:39:00,65.3,48.7,29.61,North,0,0.0,0.0,55,0.00,,,0.00,WUHU216HW,2013-04-27 01:39:00,
2013-04-26 18:40:00,65.2,48.5,29.61,North,0,0.0,0.0,55,0.00,,,0.00,WUHU216HW,2013-04-27 01:40:00,
2013-04-26 18:44:00,65.0,48.8,29.61,North,0,0.0,0.0,56,0.00,,,0.00,WUHU216HW,2013-04-27 01:44:00,
2013-04-26 18:45:00,64.8,48.6,29.61,North,0,0.0,0.0,56,0.00,,,0.00,WUHU216HW,2013-04-27 01:45:00,
2013-04-26 18:46:00,64.8,48.6,29.61,North,0,0.0,0.0,56,0.00,,,0.00,WUHU216HW,2013-04-27 01:46:00,
2013-04-26 18:49:00,64.1,48.0,29.62,North,0,0.0,0.0,56,0.00,,,0.00,WUHU216HW,2013-04-27 01:49:00,
2013-04-26 18:50:00,64.1,48.0,29.62,North,0,0.0,0.0,56,0.00,,,0.00,WUHU216HW,2013-04-27 01:50:00,
2013-04-26 18:51:00,63.7,47.6,29.61,North,0,0.0,0.0,56,0.00,,,0.00,WUHU216HW,2013-04-27 01:51:00,
2013-04-26 18:54:00,63.4,47.8,29.61,North,0,0.0,0.0,57,0.00,,,0.00,WUHU216HW,2013-04-27 01:54:00,
2013-04-26 18:55:00,63.4,47.8,29.61,North,0,0.0,0.0,57,0.00,,,0.00,WUHU216HW,2013-04-27 01:55:00,
2013-04-26 18:56:00,63.4,47.8,29.61,North,0,0.0,0.0,57,0.00,,,0.00,WUHU216HW,2013-04-27 01:56:00,
2013-04-26 18:59:00,63.4,47.8,29.61,North,0,0.0,0.0,57,0.00,,,0.00,WUHU216HW,2013-04-27 01:59:00,
2013-04-26 19:00:00,63.4,47.8,29.61,North,0,0.0,0.0,57,0.00,,,0.00,WUHU216HW,2013-04-27 02:00:00,
2013-04-26 19:01:00,63.4,47.8,29.61,North,0,0.0,0.0,57,0.00,,,0.00,WUHU216HW,2013-04-27 02:01:00,
2013-04-26 19:05:00,63.0,48.0,29.62,North,0,0.0,0.0,58,0.00,,,0.00,WUHU216HW,2013-04-27 02:05:00,
2013-04-26 19:06:00,63.0,48.0,29.62,North,0,0.0,0.0,58,0.00,,,0.00,WUHU216HW,2013-04-27 02:06:00,
2013-04-26 19:10:00,62.3,47.4,29.62,North,0,0.0,0.0,58,0.00,,,0.00,WUHU216HW,2013-04-27 02:10:00,
2013-04-26 19:11:00,62.3,47.4,29.62,North,0,0.0,0.0,58,0.00,,,0.00,WUHU216HW,2013-04-27 02:11:00,
2013-04-26 19:12:00,62.1,47.2,29.62,North,0,0.0,0.0,58,0.00,,,0.00,WUHU216HW,2013-04-27 02:12:00,
2013-04-26 19:15:00,61.7,47.4,29.62,North,0,0.0,0.0,59,0.00,,,0.00,WUHU216HW,2013-04-27 02:15:00,
2013-04-26 19:16:00,61.6,47.2,29.62,North,0,0.0,0.0,59,0.00,,,0.00,WUHU216HW,2013-04-27 02:16:00,
2013-04-26 19:17:00,61.6,47.2,29.62,North,0,0.0,0.0,59,0.00,,,0.00,WUHU216HW,2013-04-27 02:17:00,
2013-04-26 19:20:00,61.0,47.2,29.62,North,0,0.0,0.0,60,0.00,,,0.00,WUHU216HW,2013-04-27 02:20:00,
2013-04-26 19:21:00,61.0,47.2,29.62,North,0,0.0,0.0,60,0.00,,,0.00,WUHU216HW,2013-04-27 02:21:00,
2013-04-26 19:22:00,60.8,47.0,29.62,North,0,0.0,0.0,60,0.00,,,0.00,WUHU216HW,2013-04-27 02:22:00,
2013-04-26 19:25:00,60.5,47.1,29.62,North,0,0.0,0.0,61,0.00,,,0.00,WUHU216HW,2013-04-27 02:25:00,
2013-04-26 19:26:00,60.5,47.1,29.62,North,0,0.0,0.0,61,0.00,,,0.00,WUHU216HW,2013-04-27 02:26:00,
2013-04-26 19:27:00,60.5,47.1,29.62,North,0,0.0,0.0,61,0.00,,,0.00,WUHU216HW,2013-04-27 02:27:00,
2013-04-26 19:31:00,60.1,47.1,29.62,North,0,0.0,0.0,62,0.00,,,0.00,WUHU216HW,2013-04-27 02:31:00,
2013-04-26 19:32:00,60.1,47.1,29.62,North,0,0.0,0.0,62,0.00,,,0.00,WUHU216HW,2013-04-27 02:32:00,
2013-04-26 19:36:00,59.8,46.7,29.62,North,0,0.0,0.0,62,0.00,,,0.00,WUHU216HW,2013-04-27 02:36:00,
2013-04-26 19:37:00,59.6,46.5,29.62,North,0,0.0,0.0,62,0.00,,,0.00,WUHU216HW,2013-04-27 02:37:00,
2013-04-26 19:41:00,59.4,46.4,29.62,North,0,0.0,0.0,62,0.00,,,0.00,WUHU216HW,2013-04-27 02:41:00,
2013-04-26 19:42:00,59.2,46.2,29.62,North,0,0.0,0.0,62,0.00,,,0.00,WUHU216HW,2013-04-27 02:42:00,
2013-04-26 19:46:00,59.0,45.6,29.62,North,0,0.0,0.0,61,0.00,,,0.00,WUHU216HW,2013-04-27 02:46:00,
2013-04-26 19:47:00,58.9,45.5,29.62,North,0,0.0,0.0,61,0.00,,,0.00,WUHU216HW,2013-04-27 02:47:00,
2013-04-26 19:48:00,58.9,45.5,29.62,North,0,0.0,0.0,61,0.00,,,0.00,WUHU216HW,2013-04-27 02:48:00,
2013-04-26 19:51:00,58.7,45.3,29.62,North,0,0.0,0.0,61,0.00,,,0.00,WUHU216HW,2013-04-27 02:51:00,
2013-04-26 19:52:00,58.7,45.3,29.62,North,0,0.0,0.0,61,0.00,,,0.00,WUHU216HW,2013-04-27 02:52:00,
2013-04-26 19:53:00,58.7,44.4,29.62,North,0,0.0,0.0,59,0.00,,,0.00,WUHU216HW,2013-04-27 02:53:00,
2013-04-26 19:56:00,58.5,44.7,29.62,North,0,0.0,0.0,60,0.00,,,0.00,WUHU216HW,2013-04-27 02:56:00,
2013-04-26 19:57:00,58.5,44.7,29.62,North,0,0.0,0.0,60,0.00,,,0.00,WUHU216HW,2013-04-27 02:57:00,
2013-04-26 19:58:00,58.5,45.1,29.61,North,0,0.0,0.0,61,0.00,,,0.00,WUHU216HW,2013-04-27 02:58:00,
2013-04-26 20:01:00,58.1,44.4,29.61,North,0,0.0,0.0,60,0.00,,,0.00,WUHU216HW,2013-04-27 03:01:00,
2013-04-26 20:02:00,58.0,44.2,29.61,North,0,0.0,0.0,60,0.00,,,0.00,WUHU216HW,2013-04-27 03:02:00,
2013-04-26 20:03:00,58.0,44.2,29.61,North,0,0.0,0.0,60,0.00,,,0.00,WUHU216HW,2013-04-27 03:03:00,
2013-04-26 20:07:00,57.6,44.3,29.61,North,0,0.0,0.0,61,0.00,,,0.00,WUHU216HW,2013-04-27 03:07:00,
2013-04-26 20:08:00,57.8,44.5,29.61,North,0,0.0,0.0,61,0.00,,,0.00,WUHU216HW,2013-04-27 03:08:00,
2013-04-26 20:09:00,57.6,44.3,29.61,North,0,0.0,0.0,61,0.00,,,0.00,WUHU216HW,2013-04-27 03:09:00,
2013-04-26 20:12:00,57.4,44.1,29.61,North,0,0.0,0.0,61,0.00,,,0.00,WUHU216HW,2013-04-27 03:12:00,
2013-04-26 20:13:00,57.4,44.1,29.61,North,0,0.0,0.0,61,0.00,,,0.00,WUHU216HW,2013-04-27 03:13:00,
2013-04-26 20:14:00,57.2,43.9,29.61,North,0,0.0,0.0,61,0.00,,,0.00,WUHU216HW,2013-04-27 03:14:00,
2013-04-26 20:17:00,57.2,43.9,29.61,North,0,0.0,0.0,61,0.00,,,0.00,WUHU216HW,2013-04-27 03:17:00,
2013-04-26 20:18:00,57.2,43.9,29.61,North,0,0.0,0.0,61,0.00,,,0.00,WUHU216HW,2013-04-27 03:18:00,
2013-04-26 20:19:00,57.2,43.9,29.61,North,0,0.0,0.0,61,0.00,,,0.00,WUHU216HW,2013-04-27 03:19:00,
2013-04-26 20:20:00,57.2,43.9,29.61,North,0,0.0,0.0,61,0.00,,,0.00,WUHU216HW,2013-04-27 03:20:00,
2013-04-26 20:44:00,54.9,41.7,29.62,North,0,0.0,0.0,61,0.00,,,0.00,WUHU216HW,2013-04-27 03:44:00,
2013-04-26 20:49:00,54.7,41.5,29.62,North,0,0.0,0.0,61,0.00,,,0.00,WUHU216HW,2013-04-27 03:49:00,
2013-04-26 20:50:00,54.5,41.3,29.62,North,0,0.0,0.0,61,0.00,,,0.00,WUHU216HW,2013-04-27 03:50:00,
2013-04-26 20:54:00,54.4,41.6,29.62,North,0,0.0,0.0,62,0.00,,,0.00,WUHU216HW,2013-04-27 03:54:00,
2013-04-26 20:55:00,54.4,41.6,29.62,North,0,0.0,0.0,62,0.00,,,0.00,WUHU216HW,2013-04-27 03:55:00,
2013-04-26 20:59:00,54.0,41.2,29.62,North,0,0.0,0.0,62,0.00,,,0.00,WUHU216HW,2013-04-27 03:59:00,
2013-04-26 21:00:00,54.0,41.2,29.62,North,0,0.0,0.0,62,0.00,,,0.00,WUHU216HW,2013-04-27 04:00:00,
2013-04-26 21:01:00,54.0,41.2,29.62,North,0,0.0,0.0,62,0.00,,,0.00,WUHU216HW,2013-04-27 04:01:00,
2013-04-26 21:02:00,54.0,41.2,29.62,North,0,0.0,0.0,62,0.00,,,0.00,WUHU216HW,2013-04-27 04:02:00,
2013-04-26 21:06:00,53.6,41.0,29.63,North,0,0.0,0.0,62,0.00,,,0.00,WUHU216HW,2013-04-27 04:06:00,
2013-04-26 21:07:00,53.6,41.3,29.63,North,0,0.0,0.0,63,0.00,,,0.00,WUHU216HW,2013-04-27 04:07:00,
2013-04-26 21:11:00,53.5,41.1,29.63,North,0,0.0,0.0,63,0.00,,,0.00,WUHU216HW,2013-04-27 04:11:00,
2013-04-26 21:12:00,53.5,41.6,29.63,North,0,0.0,0.0,64,0.00,,,0.00,WUHU216HW,2013-04-27 04:12:00,
2013-04-26 21:16:00,53.3,41.4,29.63,North,0,0.0,0.0,64,0.00,,,0.00,WUHU216HW,2013-04-27 04:16:00,
2013-04-26 21:17:00,53.3,41.4,29.63,North,0,0.0,0.0,64,0.00,,,0.00,WUHU216HW,2013-04-27 04:17:00,
2013-04-26 21:21:00,53.1,41.2,29.63,North,0,0.0,0.0,64,0.00,,,0.00,WUHU216HW,2013-04-27 04:21:00,
2013-04-26 21:22:00,52.9,41.1,29.63,North,0,0.0,0.0,64,0.00,,,0.00,WUHU216HW,2013-04-27 04:22:00,
2013-04-26 21:23:00,52.9,41.1,29.63,North,0,0.0,0.0,64,0.00,,,0.00,WUHU216HW,2013-04-27 04:23:00,
2013-04-26 21:26:00,52.9,41.1,29.63,North,0,0.0,0.0,64,0.00,,,0.00,WUHU216HW,2013-04-27 04:26:00,
2013-04-26 21:27:00,52.9,41.1,29.63,North,0,0.0,0.0,64,0.00,,,0.00,WUHU216HW,2013-04-27 04:27:00,
2013-04-26 21:28:00,52.9,41.1,29.63,North,0,0.0,0.0,64,0.00,,,0.00,WUHU216HW,2013-04-27 04:28:00,
2013-04-26 21:31:00,52.9,41.4,29.64,North,0,0.0,0.0,65,0.00,,,0.00,WUHU216HW,2013-04-27 04:31:00,
2013-04-26 21:32:00,52.9,41.4,29.64,North,0,0.0,0.0,65,0.00,,,0.00,WUHU216HW,2013-04-27 04:32:00,
2013-04-26 21:33:00,52.9,41.4,29.64,North,0,0.0,0.0,65,0.00,,,0.00,WUHU216HW,2013-04-27 04:33:00,
2013-04-26 21:34:00,52.9,41.4,29.64,North,0,0.0,0.0,65,0.00,,,0.00,WUHU216HW,2013-04-27 04:34:00,
2013-04-26 21:36:00,52.7,41.3,29.64,North,0,0.0,0.0,65,0.00,,,0.00,WUHU216HW,2013-04-27 04:36:00,
2013-04-26 21:37:00,52.7,41.3,29.64,North,0,0.0,0.0,65,0.00,,,0.00,WUHU216HW,2013-04-27 04:37:00,
2013-04-26 21:38:00,52.7,41.3,29.64,North,0,0.0,0.0,65,0.00,,,0.00,WUHU216HW,2013-04-27 04:38:00,
2013-04-26 21:39:00,52.7,41.3,29.64,North,0,0.0,0.0,65,0.00,,,0.00,WUHU216HW,2013-04-27 04:39:00,
2013-04-26 21:42:00,52.6,41.1,29.64,North,0,0.0,0.0,65,0.00,,,0.00,WUHU216HW,2013-04-27 04:42:00,
2013-04-26 21:43:00,52.6,41.1,29.64,North,0,0.0,0.0,65,0.00,,,0.00,WUHU216HW,2013-04-27 04:43:00,
2013-04-26 21:44:00,52.4,41.0,29.64,North,0,0.0,0.0,65,0.00,,,0.00,WUHU216HW,2013-04-27 04:44:00,
2013-04-26 21:47:00,52.2,41.1,29.63,North,0,0.0,0.0,66,0.00,,,0.00,WUHU216HW,2013-04-27 04:47:00,
2013-04-26 21:48:00,52.2,41.1,29.63,North,0,0.0,0.0,66,0.00,,,0.00,WUHU216HW,2013-04-27 04:48:00,
2013-04-26 21:50:00,52.2,41.1,29.64,North,0,0.0,0.0,66,0.00,,,0.00,WUHU216HW,2013-04-27 04:50:00,
2013-04-26 21:52:00,52.0,41.4,29.64,North,0,0.0,0.0,67,0.00,,,0.00,WUHU216HW,2013-04-27 04:52:00,
2013-04-26 21:53:00,52.0,41.4,29.64,North,0,0.0,0.0,67,0.00,,,0.00,WUHU216HW,2013-04-27 04:53:00,
2013-04-26 21:55:00,52.0,41.4,29.63,North,0,0.0,0.0,67,0.00,,,0.00,WUHU216HW,2013-04-27 04:55:00,
2013-04-26 21:57:00,51.8,41.7,29.63,North,0,0.0,0.0,68,0.00,,,0.00,WUHU216HW,2013-04-27 04:57:00,
2013-04-26 21:58:00,51.8,41.7,29.63,North,0,0.0,0.0,68,0.00,,,0.00,WUHU216HW,2013-04-27 04:58:00,
2013-04-26 22:00:00,51.8,41.7,29.63,North,0,0.0,0.0,68,0.00,,,0.00,WUHU216HW,2013-04-27 05:00:00,
2013-04-26 22:02:00,51.8,41.7,29.63,North,0,0.0,0.0,68,0.00,,,0.00,WUHU216HW,2013-04-27 05:02:00,
2013-04-26 22:03:00,51.8,41.7,29.63,North,0,0.0,0.0,68,0.00,,,0.00,WUHU216HW,2013-04-27 05:03:00,
2013-04-26 22:04:00,51.8,41.7,29.63,North,0,0.0,0.0,68,0.00,,,0.00,WUHU216HW,2013-04-27 05:04:00,
2013-04-26 22:06:00,51.8,41.7,29.63,North,0,0.0,0.0,68,0.00,,,0.00,WUHU216HW,2013-04-27 05:06:00,
2013-04-26 22:07:00,51.8,41.7,29.64,North,0,0.0,0.0,68,0.00,,,0.00,WUHU216HW,2013-04-27 05:07:00,
2013-04-26 22:08:00,51.8,41.7,29.64,North,0,0.0,0.0,68,0.00,,,0.00,WUHU216HW,2013-04-27 05:08:00,
2013-04-26 22:09:00,51.8,41.7,29.63,North,0,0.0,0.0,68,0.00,,,0.00,WUHU216HW,2013-04-27 05:09:00,
2013-04-26 22:12:00,51.7,41.5,29.63,North,0,0.0,0.0,68,0.00,,,0.00,WUHU216HW,2013-04-27 05:12:00,
2013-04-26 22:13:00,51.7,41.5,29.63,North,0,0.0,0.0,68,0.00,,,0.00,WUHU216HW,2013-04-27 05:13:00,
2013-04-26 22:14:00,51.7,41.5,29.63,North,0,0.0,0.0,68,0.00,,,0.00,WUHU216HW,2013-04-27 05:14:00,
2013-04-26 22:17:00,51.7,41.5,29.63,North,0,0.0,0.0,68,0.00,,,0.00,WUHU216HW,2013-04-27 05:17:00,
2013-04-26 22:18:00,51.7,41.5,29.63,North,0,0.0,0.0,68,0.00,,,0.00,WUHU216HW,2013-04-27 05:18:00,
2013-04-26 22:19:00,51.7,41.5,29.63,North,0,0.0,0.0,68,0.00,,,0.00,WUHU216HW,2013-04-27 05:19:00,
2013-04-26 22:22:00,51.5,41.3,29.63,North,0,0.0,0.0,68,0.00,,,0.00,WUHU216HW,2013-04-27 05:22:00,
2013-04-26 22:23:00,51.5,41.3,29.64,North,0,0.0,0.0,68,0.00,,,0.00,WUHU216HW,2013-04-27 05:23:00,
2013-04-26 22:24:00,51.5,41.3,29.63,North,0,0.0,0.0,68,0.00,,,0.00,WUHU216HW,2013-04-27 05:24:00,
2013-04-26 22:25:00,51.5,41.3,29.63,North,0,0.0,0.0,68,0.00,,,0.00,WUHU216HW,2013-04-27 05:25:00,
2013-04-26 22:27:00,51.5,41.3,29.63,North,0,0.0,0.0,68,0.00,,,0.00,WUHU216HW,2013-04-27 05:27:00,
2013-04-26 22:28:00,51.5,41.7,29.64,North,0,0.0,0.0,69,0.00,,,0.00,WUHU216HW,2013-04-27 05:28:00,
2013-04-26 22:29:00,51.5,41.7,29.64,North,0,0.0,0.0,69,0.00,,,0.00,WUHU216HW,2013-04-27 05:29:00,
2013-04-26 22:31:00,51.5,41.7,29.63,North,0,0.0,0.0,69,0.00,,,0.00,WUHU216HW,2013-04-27 05:31:00,
2013-04-26 22:32:00,51.5,41.7,29.63,North,0,0.0,0.0,69,0.00,,,0.00,WUHU216HW,2013-04-27 05:32:00,
2013-04-26 22:33:00,51.5,41.7,29.63,North,0,0.0,0.0,69,0.00,,,0.00,WUHU216HW,2013-04-27 05:33:00,
2013-04-26 22:34:00,51.5,41.7,29.63,North,0,0.0,0.0,69,0.00,,,0.00,WUHU216HW,2013-04-27 05:34:00,
2013-04-26 22:36:00,51.5,42.1,29.63,North,0,0.0,0.0,70,0.00,,,0.00,WUHU216HW,2013-04-27 05:36:00,
2013-04-26 22:37:00,51.5,42.1,29.63,North,0,0.0,0.0,70,0.00,,,0.00,WUHU216HW,2013-04-27 05:37:00,
2013-04-26 22:39:00,51.5,42.1,29.63,North,0,0.0,0.0,70,0.00,,,0.00,WUHU216HW,2013-04-27 05:39:00,
2013-04-26 22:40:00,51.5,42.1,29.63,North,0,0.0,0.0,70,0.00,,,0.00,WUHU216HW,2013-04-27 05:40:00,
2013-04-26 22:41:00,51.5,42.1,29.63,North,0,0.0,0.0,70,0.00,,,0.00,WUHU216HW,2013-04-27 05:41:00,
2013-04-26 22:42:00,51.5,42.1,29.63,North,0,0.0,0.0,70,0.00,,,0.00,WUHU216HW,2013-04-27 05:42:00,
2013-04-26 22:44:00,51.5,42.1,29.63,North,0,0.0,0.0,70,0.00,,,0.00,WUHU216HW,2013-04-27 05:44:00,
2013-04-26 22:45:00,51.5,42.1,29.63,North,0,0.0,0.0,70,0.00,,,0.00,WUHU216HW,2013-04-27 05:45:00,
2013-04-26 22:47:00,51.5,42.1,29.63,North,0,0.0,0.0,70,0.00,,,0.00,WUHU216HW,2013-04-27 05:47:00,
2013-04-26 22:49:00,51.5,42.1,29.64,North,0,0.0,0.0,70,0.00,,,0.00,WUHU216HW,2013-04-27 05:49:00,
2013-04-26 22:50:00,51.5,42.1,29.64,North,0,0.0,0.0,70,0.00,,,0.00,WUHU216HW,2013-04-27 05:50:00,
2013-04-26 22:52:00,51.3,41.9,29.64,North,0,0.0,0.0,70,0.00,,,0.00,WUHU216HW,2013-04-27 05:52:00,
2013-04-26 22:55:00,51.3,41.9,29.64,North,0,0.0,0.0,70,0.00,,,0.00,WUHU216HW,2013-04-27 05:55:00,
2013-04-26 22:57:00,51.3,42.3,29.63,North,0,0.0,0.0,71,0.00,,,0.00,WUHU216HW,2013-04-27 05:57:00,
2013-04-26 23:00:00,51.1,42.5,29.64,North,0,0.0,0.0,72,0.00,,,0.00,WUHU216HW,2013-04-27 06:00:00,
2013-04-26 23:01:00,51.1,42.5,29.63,North,0,0.0,0.0,72,0.00,,,0.00,WUHU216HW,2013-04-27 06:01:00,
2013-04-26 23:02:00,51.1,42.5,29.63,North,0,0.0,0.0,72,0.00,,,0.00,WUHU216HW,2013-04-27 06:02:00,
2013-04-26 23:05:00,50.9,42.3,29.63,North,0,0.0,0.0,72,0.00,,,0.00,WUHU216HW,2013-04-27 06:05:00,
2013-04-26 23:06:00,50.9,42.3,29.63,North,0,0.0,0.0,72,0.00,,,0.00,WUHU216HW,2013-04-27 06:06:00,
2013-04-26 23:07:00,50.9,42.3,29.63,North,0,0.0,0.0,72,0.00,,,0.00,WUHU216HW,2013-04-27 06:07:00,
2013-04-26 23:08:00,50.9,42.3,29.63,North,0,0.0,0.0,72,0.00,,,0.00,WUHU216HW,2013-04-27 06:08:00,
2013-04-26 23:11:00,50.8,42.1,29.63,North,0,0.0,0.0,72,0.00,,,0.00,WUHU216HW,2013-04-27 06:11:00,
2013-04-26 23:12:00,50.8,42.1,29.63,North,0,0.0,0.0,72,0.00,,,0.00,WUHU216HW,2013-04-27 06:12:00,
2013-04-26 23:13:00,50.8,42.1,29.63,North,0,0.0,0.0,72,0.00,,,0.00,WUHU216HW,2013-04-27 06:13:00,
2013-04-26 23:16:00,50.8,41.8,29.63,North,0,0.0,0.0,71,0.00,,,0.00,WUHU216HW,2013-04-27 06:16:00,
2013-04-26 23:17:00,50.8,42.1,29.63,North,0,0.0,0.0,72,0.00,,,0.00,WUHU216HW,2013-04-27 06:17:00,
2013-04-26 23:18:00,50.8,42.1,29.63,North,0,0.0,0.0,72,0.00,,,0.00,WUHU216HW,2013-04-27 06:18:00,
2013-04-26 23:21:00,50.8,42.1,29.63,North,0,0.0,0.0,72,0.00,,,0.00,WUHU216HW,2013-04-27 06:21:00,
2013-04-26 23:22:00,50.8,42.1,29.63,North,0,0.0,0.0,72,0.00,,,0.00,WUHU216HW,2013-04-27 06:22:00,
2013-04-26 23:23:00,50.8,42.1,29.63,North,0,0.0,0.0,72,0.00,,,0.00,WUHU216HW,2013-04-27 06:23:00,
2013-04-26 23:24:00,50.8,42.1,29.63,North,0,0.0,0.0,72,0.00,,,0.00,WUHU216HW,2013-04-27 06:24:00,
2013-04-26 23:26:00,50.8,42.1,29.62,North,0,0.0,0.0,72,0.00,,,0.00,WUHU216HW,2013-04-27 06:26:00,
2013-04-26 23:27:00,50.8,42.1,29.62,North,0,0.0,0.0,72,0.00,,,0.00,WUHU216HW,2013-04-27 06:27:00,
2013-04-26 23:28:00,50.8,42.1,29.63,North,0,0.0,0.0,72,0.00,,,0.00,WUHU216HW,2013-04-27 06:28:00,
2013-04-26 23:29:00,50.8,42.1,29.63,North,0,0.0,0.0,72,0.00,,,0.00,WUHU216HW,2013-04-27 06:29:00,
2013-04-26 23:31:00,50.8,42.1,29.63,North,0,0.0,0.0,72,0.00,,,0.00,WUHU216HW,2013-04-27 06:31:00,
2013-04-26 23:32:00,50.8,42.1,29.63,North,0,0.0,0.0,72,0.00,,,0.00,WUHU216HW,2013-04-27 06:32:00,
2013-04-26 23:33:00,50.8,42.1,29.62,North,0,0.0,0.0,72,0.00,,,0.00,WUHU216HW,2013-04-27 06:33:00,
2013-04-26 23:34:00,50.8,42.1,29.62,North,0,0.0,0.0,72,0.00,,,0.00,WUHU216HW,2013-04-27 06:34:00,
2013-04-26 23:37:00,50.6,42.0,29.63,North,0,0.0,0.0,72,0.00,,,0.00,WUHU216HW,2013-04-27 06:37:00,
2013-04-26 23:38:00,50.6,42.0,29.62,North,0,0.0,0.0,72,0.00,,,0.00,WUHU216HW,2013-04-27 06:38:00,
2013-04-26 23:40:00,50.6,42.0,29.62,North,0,0.0,0.0,72,0.00,,,0.00,WUHU216HW,2013-04-27 06:40:00,
2013-04-26 23:42:00,50.6,42.0,29.62,North,0,0.0,0.0,72,0.00,,,0.00,WUHU216HW,2013-04-27 06:42:00,
2013-04-26 23:43:00,50.6,42.0,29.62,North,0,0.0,0.0,72,0.00,,,0.00,WUHU216HW,2013-04-27 06:43:00,
2013-04-26 23:45:00,50.6,42.0,29.62,North,0,0.0,0.0,72,0.00,,,0.00,WUHU216HW,2013-04-27 06:45:00,
2013-04-26 23:47:00,50.6,42.0,29.62,North,0,0.0,0.0,72,0.00,,,0.00,WUHU216HW,2013-04-27 06:47:00,
2013-04-26 23:48:00,50.6,42.0,29.62,North,0,0.0,0.0,72,0.00,,,0.00,WUHU216HW,2013-04-27 06:48:00,
2013-04-26 23:50:00,50.6,42.0,29.62,North,0,0.0,0.0,72,0.00,,,0.00,WUHU216HW,2013-04-27 06:50:00,
2013-04-26 23:52:00,50.6,42.0,29.62,North,0,0.0,0.0,72,0.00,,,0.00,WUHU216HW,2013-04-27 06:52:00,
2013-04-26 23:54:00,50.6,42.0,29.62,North,0,0.0,0.0,72,0.00,,,0.00,WUHU216HW,2013-04-27 06:54:00,
2013-04-26 23:55:00,50.6,42.2,29.62,North,0,0.0,0.0,73,0.00,,,0.00,WUHU216HW,2013-04-27 06:55:00,
2013-04-26 23:57:00,50.6,42.2,29.62,North,0,0.0,0.0,73,0.00,,,0.00,WUHU216HW,2013-04-27 06:57:00,
2013-04-26 23:58:00,50.6,42.2,29.62,North,0,0.0,0.0,73,0.00,,,0.00,WUHU216HW,2013-04-27 06:58:00,
2013-04-26 23:59:00,50.6,42.2,29.62,North,0,0.0,0.0,73,0.00,,,0.00,WUHU216HW,2013-04-27 06:59:00,